Time,TemperatureF,DewpointF,PressureIn,WindDirection,WindDirectionDegrees,WindSpeedMPH,WindSpeedGustMPH,Humidity,HourlyPrecipIn,Conditions,Clouds,dailyrainin,SoftwareType,DateUTC
2013-11-24 00:00:00,42.5,38.9,29.99,North,0,0.0,0.0,87,0.02,,,0.77,WUHU216HW,2013-11-24 07:00:00,
2013-11-24 00:02:00,42.7,39.1,29.99,North,0,0.0,0.0,87,0.02,,,0.00,WUHU216HW,2013-11-24 07:02:00,
2013-11-24 00:03:00,42.7,39.1,29.99,North,0,0.0,0.0,87,0.02,,,0.00,WUHU216HW,2013-11-24 07:03:00,
2013-11-24 00:04:00,42.7,39.1,29.99,North,0,0.0,0.0,87,0.02,,,0.00,WUHU216HW,2013-11-24 07:04:00,
2013-11-24 00:05:00,42.7,39.1,29.99,North,0,0.0,0.0,87,0.02,,,0.00,WUHU216HW,2013-11-24 07:05:00,
2013-11-24 00:06:00,42.7,39.1,29.99,North,0,0.0,0.0,87,0.02,,,0.00,WUHU216HW,2013-11-24 07:06:00,
2013-11-24 00:08:00,42.7,39.1,29.99,North,0,0.0,0.0,87,0.02,,,0.00,WUHU216HW,2013-11-24 07:08:00,
2013-11-24 00:09:00,42.7,39.1,29.99,North,0,0.0,0.0,87,0.02,,,0.00,WUHU216HW,2013-11-24 07:09:00,
2013-11-24 00:10:00,42.7,39.1,29.99,North,0,0.0,0.0,87,0.02,,,0.00,WUHU216HW,2013-11-24 07:10:00,
2013-11-24 00:13:00,42.7,39.1,29.98,North,0,0.0,0.0,87,0.02,,,0.00,WUHU216HW,2013-11-24 07:13:00,
2013-11-24 00:14:00,42.7,39.1,29.99,North,0,0.0,0.0,87,0.02,,,0.00,WUHU216HW,2013-11-24 07:14:00,
2013-11-24 00:15:00,42.8,39.3,29.99,North,0,0.0,0.0,87,0.02,,,0.00,WUHU216HW,2013-11-24 07:15:00,
2013-11-24 00:17:00,42.8,39.3,29.99,North,0,0.0,0.0,87,0.02,,,0.00,WUHU216HW,2013-11-24 07:17:00,
2013-11-24 00:20:00,42.8,39.3,29.98,North,0,0.0,0.0,87,0.02,,,0.00,WUHU216HW,2013-11-24 07:20:00,
2013-11-24 00:21:00,42.8,39.3,29.98,North,0,0.0,0.0,87,0.02,,,0.00,WUHU216HW,2013-11-24 07:21:00,
2013-11-24 00:22:00,42.8,39.3,29.98,North,0,0.0,0.0,87,0.02,,,0.00,WUHU216HW,2013-11-24 07:22:00,
2013-11-24 00:23:00,42.8,39.3,29.98,North,0,0.0,0.0,87,0.02,,,0.00,WUHU216HW,2013-11-24 07:23:00,
2013-11-24 00:25:00,42.8,39.3,29.98,North,0,0.0,0.0,87,0.02,,,0.00,WUHU216HW,2013-11-24 07:25:00,
2013-11-24 00:26:00,42.8,39.3,29.98,North,0,0.0,0.0,87,0.03,,,0.01,WUHU216HW,2013-11-24 07:26:00,
2013-11-24 00:29:00,42.8,39.3,29.98,North,0,0.0,0.0,87,0.03,,,0.01,WUHU216HW,2013-11-24 07:29:00,
2013-11-24 00:31:00,42.8,39.3,29.98,North,0,0.0,0.0,87,0.03,,,0.01,WUHU216HW,2013-11-24 07:31:00,
2013-11-24 00:32:00,42.8,39.3,29.98,North,0,0.0,0.0,87,0.02,,,0.01,WUHU216HW,2013-11-24 07:32:00,
2013-11-24 00:34:00,42.8,39.3,29.98,North,0,0.0,0.0,87,0.02,,,0.01,WUHU216HW,2013-11-24 07:34:00,
2013-11-24 00:35:00,42.8,39.3,29.98,North,0,0.0,0.0,87,0.02,,,0.01,WUHU216HW,2013-11-24 07:35:00,
2013-11-24 00:36:00,42.8,39.3,29.98,North,0,0.0,0.0,87,0.02,,,0.01,WUHU216HW,2013-11-24 07:36:00,
2013-11-24 00:37:00,42.8,39.3,29.98,North,0,0.0,0.0,87,0.02,,,0.01,WUHU216HW,2013-11-24 07:37:00,
2013-11-24 00:38:00,42.8,39.3,29.98,North,0,0.0,0.0,87,0.02,,,0.01,WUHU216HW,2013-11-24 07:38:00,
2013-11-24 00:39:00,42.8,39.3,29.98,North,0,0.0,0.0,87,0.02,,,0.01,WUHU216HW,2013-11-24 07:39:00,
2013-11-24 00:41:00,42.8,39.3,29.98,North,0,0.0,0.0,87,0.02,,,0.01,WUHU216HW,2013-11-24 07:41:00,
2013-11-24 00:42:00,42.8,39.3,29.98,North,0,0.0,0.0,87,0.02,,,0.01,WUHU216HW,2013-11-24 07:42:00,
2013-11-24 00:43:00,42.8,39.3,29.98,North,0,0.0,0.0,87,0.02,,,0.01,WUHU216HW,2013-11-24 07:43:00,
2013-11-24 00:44:00,42.8,39.3,29.98,North,0,0.0,0.0,87,0.02,,,0.01,WUHU216HW,2013-11-24 07:44:00,
2013-11-24 00:47:00,42.8,39.3,29.98,North,0,0.0,0.0,87,0.02,,,0.01,WUHU216HW,2013-11-24 07:47:00,
2013-11-24 00:48:00,42.8,39.3,29.98,North,0,0.0,0.0,87,0.01,,,0.01,WUHU216HW,2013-11-24 07:48:00,
2013-11-24 00:50:00,42.8,39.3,29.98,North,0,0.0,0.0,87,0.01,,,0.01,WUHU216HW,2013-11-24 07:50:00,
2013-11-24 00:51:00,42.8,39.3,29.98,North,0,0.0,0.0,87,0.01,,,0.01,WUHU216HW,2013-11-24 07:51:00,
2013-11-24 00:52:00,42.8,39.3,29.98,North,0,0.0,0.0,87,0.01,,,0.01,WUHU216HW,2013-11-24 07:52:00,
2013-11-24 00:53:00,42.8,39.3,29.98,North,0,0.0,0.0,87,0.01,,,0.01,WUHU216HW,2013-11-24 07:53:00,
2013-11-24 00:54:00,42.8,39.3,29.98,North,0,0.0,0.0,87,0.01,,,0.01,WUHU216HW,2013-11-24 07:54:00,
2013-11-24 00:55:00,42.8,39.3,29.98,North,0,0.0,0.0,87,0.01,,,0.01,WUHU216HW,2013-11-24 07:55:00,
2013-11-24 00:56:00,42.8,39.3,29.98,North,0,0.0,0.0,87,0.01,,,0.01,WUHU216HW,2013-11-24 07:56:00,
2013-11-24 00:58:00,42.8,39.3,29.98,North,0,0.0,0.0,87,0.01,,,0.01,WUHU216HW,2013-11-24 07:58:00,
2013-11-24 00:59:00,42.8,39.3,29.98,North,0,0.0,0.0,87,0.01,,,0.01,WUHU216HW,2013-11-24 07:59:00,
2013-11-24 01:01:00,42.8,39.3,29.98,North,0,0.0,0.0,87,0.01,,,0.01,WUHU216HW,2013-11-24 08:01:00,
2013-11-24 01:03:00,42.8,39.3,29.98,North,0,0.0,0.0,87,0.01,,,0.01,WUHU216HW,2013-11-24 08:03:00,
2013-11-24 01:04:00,42.8,39.3,29.98,North,0,0.0,0.0,87,0.01,,,0.01,WUHU216HW,2013-11-24 08:04:00,
2013-11-24 01:05:00,42.8,39.3,29.98,North,0,0.0,0.0,87,0.01,,,0.01,WUHU216HW,2013-11-24 08:05:00,
2013-11-24 01:07:00,42.7,39.1,29.98,North,0,0.0,0.0,87,0.01,,,0.01,WUHU216HW,2013-11-24 08:07:00,
2013-11-24 01:08:00,42.7,39.1,29.98,North,0,0.0,0.0,87,0.01,,,0.01,WUHU216HW,2013-11-24 08:08:00,
2013-11-24 01:10:00,42.5,38.9,29.98,North,0,0.0,0.0,87,0.01,,,0.01,WUHU216HW,2013-11-24 08:10:00,
2013-11-24 01:11:00,42.5,38.9,29.98,North,0,0.0,0.0,87,0.01,,,0.01,WUHU216HW,2013-11-24 08:11:00,
2013-11-24 01:13:00,42.5,38.9,29.98,North,0,0.0,0.0,87,0.01,,,0.01,WUHU216HW,2013-11-24 08:13:00,
2013-11-24 01:16:00,42.3,38.7,29.98,North,0,0.0,0.0,87,0.02,,,0.02,WUHU216HW,2013-11-24 08:16:00,
2013-11-24 01:17:00,42.3,38.7,29.98,North,0,0.0,0.0,87,0.02,,,0.02,WUHU216HW,2013-11-24 08:17:00,
2013-11-24 01:18:00,42.3,38.7,29.98,North,0,0.0,0.0,87,0.02,,,0.02,WUHU216HW,2013-11-24 08:18:00,
2013-11-24 01:20:00,42.1,38.5,29.98,North,0,0.0,0.0,87,0.02,,,0.02,WUHU216HW,2013-11-24 08:20:00,
2013-11-24 01:22:00,42.1,38.5,29.98,North,0,0.0,0.0,87,0.02,,,0.02,WUHU216HW,2013-11-24 08:22:00,
2013-11-24 01:23:00,42.1,38.5,29.98,North,0,0.0,0.0,87,0.02,,,0.02,WUHU216HW,2013-11-24 08:23:00,
2013-11-24 01:26:00,42.1,38.5,29.98,North,0,0.0,0.0,87,0.01,,,0.02,WUHU216HW,2013-11-24 08:26:00,
2013-11-24 01:28:00,42.1,38.8,29.98,North,0,0.0,0.0,88,0.01,,,0.02,WUHU216HW,2013-11-24 08:28:00,
2013-11-24 01:29:00,42.1,38.8,29.98,North,0,0.0,0.0,88,0.01,,,0.02,WUHU216HW,2013-11-24 08:29:00,
2013-11-24 01:31:00,42.1,38.8,29.98,North,0,0.0,0.0,88,0.02,,,0.03,WUHU216HW,2013-11-24 08:31:00,
2013-11-24 01:34:00,41.9,38.6,29.98,North,0,0.0,0.0,88,0.02,,,0.03,WUHU216HW,2013-11-24 08:34:00,
2013-11-24 01:35:00,41.9,38.6,29.98,North,0,0.0,0.0,88,0.02,,,0.03,WUHU216HW,2013-11-24 08:35:00,
2013-11-24 01:36:00,41.9,38.6,29.98,North,0,0.0,0.0,88,0.02,,,0.03,WUHU216HW,2013-11-24 08:36:00,
2013-11-24 01:39:00,41.9,38.6,29.98,North,0,0.0,0.0,88,0.02,,,0.03,WUHU216HW,2013-11-24 08:39:00,
2013-11-24 01:40:00,41.9,38.6,29.98,North,0,0.0,0.0,88,0.02,,,0.03,WUHU216HW,2013-11-24 08:40:00,
2013-11-24 01:42:00,41.9,38.6,29.98,North,0,0.0,0.0,88,0.02,,,0.03,WUHU216HW,2013-11-24 08:42:00,
2013-11-24 01:43:00,41.9,38.6,29.98,North,0,0.0,0.0,88,0.02,,,0.03,WUHU216HW,2013-11-24 08:43:00,
2013-11-24 01:45:00,41.9,38.6,29.98,North,0,0.0,0.0,88,0.02,,,0.03,WUHU216HW,2013-11-24 08:45:00,
2013-11-24 01:46:00,41.9,38.6,29.98,North,0,0.0,0.0,88,0.02,,,0.03,WUHU216HW,2013-11-24 08:46:00,
2013-11-24 01:47:00,41.9,38.6,29.98,North,0,0.0,0.0,88,0.02,,,0.03,WUHU216HW,2013-11-24 08:47:00,
2013-11-24 01:48:00,41.9,38.6,29.98,North,0,0.0,0.0,88,0.02,,,0.03,WUHU216HW,2013-11-24 08:48:00,
2013-11-24 01:51:00,41.9,38.6,29.98,North,0,0.0,0.0,88,0.02,,,0.03,WUHU216HW,2013-11-24 08:51:00,
2013-11-24 01:52:00,41.9,38.6,29.98,North,0,0.0,0.0,88,0.02,,,0.03,WUHU216HW,2013-11-24 08:52:00,
2013-11-24 01:53:00,41.9,38.6,29.98,North,0,0.0,0.0,88,0.02,,,0.03,WUHU216HW,2013-11-24 08:53:00,
2013-11-24 01:54:00,41.9,38.6,29.98,North,0,0.0,0.0,88,0.02,,,0.03,WUHU216HW,2013-11-24 08:54:00,
2013-11-24 01:55:00,41.9,38.6,29.98,North,0,0.0,0.0,88,0.02,,,0.03,WUHU216HW,2013-11-24 08:55:00,
2013-11-24 01:56:00,41.9,38.6,29.98,North,0,0.0,0.0,88,0.02,,,0.03,WUHU216HW,2013-11-24 08:56:00,
2013-11-24 01:58:00,41.9,38.6,29.98,North,0,0.0,0.0,88,0.02,,,0.03,WUHU216HW,2013-11-24 08:58:00,
2013-11-24 01:59:00,41.9,38.6,29.98,North,0,0.0,0.0,88,0.02,,,0.03,WUHU216HW,2013-11-24 08:59:00,
2013-11-24 02:00:00,41.9,38.6,29.98,North,0,0.0,0.0,88,0.02,,,0.03,WUHU216HW,2013-11-24 09:00:00,
2013-11-24 02:01:00,41.9,38.6,29.98,North,0,0.0,0.0,88,0.02,,,0.03,WUHU216HW,2013-11-24 09:01:00,
2013-11-24 02:02:00,41.9,38.6,29.98,North,0,0.0,0.0,88,0.02,,,0.03,WUHU216HW,2013-11-24 09:02:00,
2013-11-24 02:04:00,41.9,38.6,29.98,North,0,0.0,0.0,88,0.02,,,0.03,WUHU216HW,2013-11-24 09:04:00,
2013-11-24 02:05:00,41.9,38.6,29.98,North,0,0.0,0.0,88,0.02,,,0.03,WUHU216HW,2013-11-24 09:05:00,
2013-11-24 02:06:00,41.9,38.6,29.98,North,0,0.0,0.0,88,0.02,,,0.03,WUHU216HW,2013-11-24 09:06:00,
2013-11-24 02:07:00,41.9,38.6,29.98,North,0,0.0,0.0,88,0.02,,,0.03,WUHU216HW,2013-11-24 09:07:00,
2013-11-24 02:09:00,41.8,38.4,29.98,North,0,0.0,0.0,88,0.02,,,0.03,WUHU216HW,2013-11-24 09:09:00,
2013-11-24 02:10:00,41.9,38.6,29.98,North,0,0.0,0.0,88,0.02,,,0.03,WUHU216HW,2013-11-24 09:10:00,
2013-11-24 02:12:00,41.8,38.4,29.98,North,0,0.0,0.0,88,0.01,,,0.03,WUHU216HW,2013-11-24 09:12:00,
2013-11-24 02:14:00,41.8,38.4,29.99,North,0,0.0,0.0,88,0.01,,,0.03,WUHU216HW,2013-11-24 09:14:00,
2013-11-24 02:15:00,41.8,38.4,29.99,North,0,0.0,0.0,88,0.01,,,0.03,WUHU216HW,2013-11-24 09:15:00,
2013-11-24 02:17:00,41.8,38.4,29.98,North,0,0.0,0.0,88,0.01,,,0.03,WUHU216HW,2013-11-24 09:17:00,
2013-11-24 02:18:00,41.9,38.6,29.98,North,0,0.0,0.0,88,0.01,,,0.03,WUHU216HW,2013-11-24 09:18:00,
2013-11-24 02:20:00,41.8,38.4,29.99,North,0,0.0,0.0,88,0.01,,,0.03,WUHU216HW,2013-11-24 09:20:00,
2013-11-24 02:21:00,41.8,38.4,29.99,North,0,0.0,0.0,88,0.01,,,0.03,WUHU216HW,2013-11-24 09:21:00,
2013-11-24 02:23:00,41.8,38.4,29.98,North,0,0.0,0.0,88,0.01,,,0.03,WUHU216HW,2013-11-24 09:23:00,
2013-11-24 02:24:00,41.9,38.6,29.98,North,0,0.0,0.0,88,0.01,,,0.03,WUHU216HW,2013-11-24 09:24:00,
2013-11-24 02:26:00,41.8,38.4,29.99,North,0,0.0,0.0,88,0.01,,,0.03,WUHU216HW,2013-11-24 09:26:00,
2013-11-24 02:27:00,41.8,38.8,29.99,North,0,0.0,0.0,89,0.01,,,0.03,WUHU216HW,2013-11-24 09:27:00,
2013-11-24 02:28:00,41.8,38.4,29.99,North,0,0.0,0.0,88,0.00,,,0.03,WUHU216HW,2013-11-24 09:28:00,
2013-11-24 02:29:00,41.9,39.0,29.99,North,0,0.0,0.0,89,0.00,,,0.03,WUHU216HW,2013-11-24 09:29:00,
2013-11-24 02:30:00,41.9,39.0,29.99,North,0,0.0,0.0,89,0.00,,,0.03,WUHU216HW,2013-11-24 09:30:00,
2013-11-24 02:31:00,41.9,39.0,29.99,North,0,0.0,0.0,89,0.00,,,0.03,WUHU216HW,2013-11-24 09:31:00,
2013-11-24 02:32:00,41.9,39.0,29.99,North,0,0.0,0.0,89,0.00,,,0.03,WUHU216HW,2013-11-24 09:32:00,
2013-11-24 02:34:00,41.9,39.0,29.98,North,0,0.0,0.0,89,0.00,,,0.03,WUHU216HW,2013-11-24 09:34:00,
2013-11-24 02:35:00,41.9,39.0,29.98,North,0,0.0,0.0,89,0.00,,,0.03,WUHU216HW,2013-11-24 09:35:00,
2013-11-24 02:36:00,41.9,39.0,29.98,North,0,0.0,0.0,89,0.00,,,0.03,WUHU216HW,2013-11-24 09:36:00,
2013-11-24 02:37:00,41.8,38.8,29.98,North,0,0.0,0.0,89,0.00,,,0.03,WUHU216HW,2013-11-24 09:37:00,
2013-11-24 02:40:00,41.9,39.0,29.98,North,0,0.0,0.0,89,0.00,,,0.03,WUHU216HW,2013-11-24 09:40:00,
2013-11-24 02:41:00,41.9,39.0,29.98,North,0,0.0,0.0,89,0.00,,,0.03,WUHU216HW,2013-11-24 09:41:00,
2013-11-24 02:42:00,41.9,39.0,29.98,North,0,0.0,0.0,89,0.00,,,0.03,WUHU216HW,2013-11-24 09:42:00,
2013-11-24 02:43:00,41.9,39.0,29.98,North,0,0.0,0.0,89,0.00,,,0.03,WUHU216HW,2013-11-24 09:43:00,
2013-11-24 02:45:00,41.9,39.0,29.98,North,0,0.0,0.0,89,0.00,,,0.03,WUHU216HW,2013-11-24 09:45:00,
2013-11-24 02:46:00,41.9,39.0,29.98,North,0,0.0,0.0,89,0.00,,,0.03,WUHU216HW,2013-11-24 09:46:00,
2013-11-24 02:47:00,41.9,39.0,29.98,North,0,0.0,0.0,89,0.00,,,0.03,WUHU216HW,2013-11-24 09:47:00,
2013-11-24 02:48:00,41.9,39.0,29.99,North,0,0.0,0.0,89,0.00,,,0.03,WUHU216HW,2013-11-24 09:48:00,
2013-11-24 02:49:00,41.9,39.0,29.99,North,0,0.0,0.0,89,0.00,,,0.03,WUHU216HW,2013-11-24 09:49:00,
2013-11-24 02:51:00,41.9,39.0,29.99,North,0,0.0,0.0,89,0.01,,,0.04,WUHU216HW,2013-11-24 09:51:00,
2013-11-24 02:52:00,41.9,39.0,29.99,North,0,0.0,0.0,89,0.01,,,0.04,WUHU216HW,2013-11-24 09:52:00,
2013-11-24 02:54:00,42.1,39.2,29.99,North,0,0.0,0.0,89,0.01,,,0.04,WUHU216HW,2013-11-24 09:54:00,
2013-11-24 02:56:00,42.1,39.2,29.98,North,0,0.0,0.0,89,0.01,,,0.04,WUHU216HW,2013-11-24 09:56:00,
2013-11-24 02:57:00,42.1,39.2,29.98,North,0,0.0,0.0,89,0.01,,,0.04,WUHU216HW,2013-11-24 09:57:00,
2013-11-24 02:58:00,42.1,39.2,29.98,North,0,0.0,0.0,89,0.01,,,0.04,WUHU216HW,2013-11-24 09:58:00,
2013-11-24 02:59:00,42.1,39.2,29.98,North,0,0.0,0.0,89,0.01,,,0.04,WUHU216HW,2013-11-24 09:59:00,
2013-11-24 03:01:00,42.1,39.2,29.98,North,0,0.0,0.0,89,0.01,,,0.04,WUHU216HW,2013-11-24 10:01:00,
2013-11-24 03:03:00,42.1,39.2,29.98,North,0,0.0,0.0,89,0.01,,,0.04,WUHU216HW,2013-11-24 10:03:00,
2013-11-24 03:04:00,42.1,39.2,29.98,North,0,0.0,0.0,89,0.01,,,0.04,WUHU216HW,2013-11-24 10:04:00,
2013-11-24 03:07:00,42.1,38.8,29.98,North,0,0.0,0.0,88,0.01,,,0.04,WUHU216HW,2013-11-24 10:07:00,
2013-11-24 03:09:00,42.1,38.8,29.98,North,0,0.0,0.0,88,0.01,,,0.04,WUHU216HW,2013-11-24 10:09:00,
2013-11-24 03:10:00,42.1,38.8,29.98,North,0,0.0,0.0,88,0.01,,,0.04,WUHU216HW,2013-11-24 10:10:00,
2013-11-24 03:12:00,42.1,38.8,29.98,North,0,0.0,0.0,88,0.01,,,0.04,WUHU216HW,2013-11-24 10:12:00,
2013-11-24 03:14:00,42.1,38.8,29.98,North,0,0.0,0.0,88,0.01,,,0.04,WUHU216HW,2013-11-24 10:14:00,
2013-11-24 03:15:00,42.1,38.8,29.98,North,0,0.0,0.0,88,0.01,,,0.04,WUHU216HW,2013-11-24 10:15:00,
2013-11-24 03:16:00,42.1,38.8,29.98,North,0,0.0,0.0,88,0.01,,,0.04,WUHU216HW,2013-11-24 10:16:00,
2013-11-24 03:17:00,42.1,38.8,29.98,North,0,0.0,0.0,88,0.01,,,0.04,WUHU216HW,2013-11-24 10:17:00,
2013-11-24 03:19:00,42.1,38.8,29.98,North,0,0.0,0.0,88,0.01,,,0.04,WUHU216HW,2013-11-24 10:19:00,
2013-11-24 03:20:00,42.1,38.8,29.98,North,0,0.0,0.0,88,0.01,,,0.04,WUHU216HW,2013-11-24 10:20:00,
2013-11-24 03:21:00,42.1,38.8,29.98,North,0,0.0,0.0,88,0.01,,,0.04,WUHU216HW,2013-11-24 10:21:00,
2013-11-24 03:22:00,42.1,38.8,29.98,North,0,0.0,0.0,88,0.01,,,0.04,WUHU216HW,2013-11-24 10:22:00,
2013-11-24 03:23:00,42.1,38.8,29.98,North,0,0.0,0.0,88,0.01,,,0.04,WUHU216HW,2013-11-24 10:23:00,
2013-11-24 03:25:00,42.1,38.8,29.98,North,0,0.0,0.0,88,0.01,,,0.04,WUHU216HW,2013-11-24 10:25:00,
2013-11-24 03:26:00,42.1,38.8,29.98,North,0,0.0,0.0,88,0.01,,,0.04,WUHU216HW,2013-11-24 10:26:00,
2013-11-24 03:28:00,42.1,38.8,29.98,North,0,0.0,0.0,88,0.01,,,0.04,WUHU216HW,2013-11-24 10:28:00,
2013-11-24 03:29:00,42.1,38.8,29.98,North,0,0.0,0.0,88,0.01,,,0.04,WUHU216HW,2013-11-24 10:29:00,
2013-11-24 03:31:00,42.1,38.8,29.98,North,0,0.0,0.0,88,0.01,,,0.04,WUHU216HW,2013-11-24 10:31:00,
2013-11-24 03:34:00,42.1,38.8,29.98,North,0,0.0,0.0,88,0.01,,,0.04,WUHU216HW,2013-11-24 10:34:00,
2013-11-24 03:35:00,42.1,38.8,29.98,North,0,0.0,0.0,88,0.01,,,0.04,WUHU216HW,2013-11-24 10:35:00,
2013-11-24 03:36:00,42.3,39.0,29.98,North,0,0.0,0.0,88,0.01,,,0.04,WUHU216HW,2013-11-24 10:36:00,
2013-11-24 03:38:00,42.3,39.0,29.98,North,0,0.0,0.0,88,0.01,,,0.04,WUHU216HW,2013-11-24 10:38:00,
2013-11-24 03:41:00,42.3,39.0,29.98,North,0,0.0,0.0,88,0.01,,,0.04,WUHU216HW,2013-11-24 10:41:00,
2013-11-24 03:42:00,42.3,39.0,29.98,North,0,0.0,0.0,88,0.01,,,0.04,WUHU216HW,2013-11-24 10:42:00,
2013-11-24 03:44:00,42.3,39.0,29.97,North,0,0.0,0.0,88,0.01,,,0.04,WUHU216HW,2013-11-24 10:44:00,
2013-11-24 03:46:00,42.3,39.0,29.98,North,0,0.0,0.0,88,0.01,,,0.04,WUHU216HW,2013-11-24 10:46:00,
2013-11-24 03:47:00,42.3,39.0,29.98,North,0,0.0,0.0,88,0.01,,,0.04,WUHU216HW,2013-11-24 10:47:00,
2013-11-24 03:49:00,42.3,39.0,29.98,North,0,0.0,0.0,88,0.00,,,0.04,WUHU216HW,2013-11-24 10:49:00,
2013-11-24 03:51:00,42.3,39.0,29.97,North,0,0.0,0.0,88,0.00,,,0.04,WUHU216HW,2013-11-24 10:51:00,
2013-11-24 03:53:00,42.3,39.0,29.97,North,0,0.0,0.0,88,0.00,,,0.04,WUHU216HW,2013-11-24 10:53:00,
2013-11-24 03:54:00,42.3,39.0,29.97,North,0,0.0,0.0,88,0.00,,,0.04,WUHU216HW,2013-11-24 10:54:00,
2013-11-24 03:55:00,42.1,38.8,29.97,North,0,0.0,0.0,88,0.00,,,0.04,WUHU216HW,2013-11-24 10:55:00,
2013-11-24 03:57:00,42.1,38.8,29.97,North,0,0.0,0.0,88,0.00,,,0.04,WUHU216HW,2013-11-24 10:57:00,
2013-11-24 03:58:00,42.1,38.8,29.97,North,0,0.0,0.0,88,0.00,,,0.04,WUHU216HW,2013-11-24 10:58:00,
2013-11-24 04:00:00,42.1,38.8,29.97,North,0,0.0,0.0,88,0.00,,,0.04,WUHU216HW,2013-11-24 11:00:00,
2013-11-24 04:02:00,42.1,38.8,29.97,North,0,0.0,0.0,88,0.00,,,0.04,WUHU216HW,2013-11-24 11:02:00,
2013-11-24 04:03:00,42.1,38.8,29.97,North,0,0.0,0.0,88,0.00,,,0.04,WUHU216HW,2013-11-24 11:03:00,
2013-11-24 04:04:00,42.1,38.8,29.97,North,0,0.0,0.0,88,0.00,,,0.04,WUHU216HW,2013-11-24 11:04:00,
2013-11-24 04:05:00,42.1,38.8,29.97,North,0,0.0,0.0,88,0.00,,,0.04,WUHU216HW,2013-11-24 11:05:00,
2013-11-24 04:08:00,42.1,38.8,29.97,North,0,0.0,0.0,88,0.00,,,0.04,WUHU216HW,2013-11-24 11:08:00,
2013-11-24 04:09:00,42.1,38.8,29.97,North,0,0.0,0.0,88,0.00,,,0.04,WUHU216HW,2013-11-24 11:09:00,
2013-11-24 04:10:00,42.1,38.8,29.97,North,0,0.0,0.0,88,0.00,,,0.04,WUHU216HW,2013-11-24 11:10:00,
2013-11-24 04:11:00,42.1,38.8,29.97,North,0,0.0,0.0,88,0.00,,,0.04,WUHU216HW,2013-11-24 11:11:00,
2013-11-24 04:13:00,42.1,38.8,29.97,North,0,0.0,0.0,88,0.00,,,0.04,WUHU216HW,2013-11-24 11:13:00,
2013-11-24 04:14:00,42.1,38.8,29.97,North,0,0.0,0.0,88,0.00,,,0.04,WUHU216HW,2013-11-24 11:14:00,
2013-11-24 04:15:00,42.1,38.8,29.97,North,0,0.0,0.0,88,0.00,,,0.04,WUHU216HW,2013-11-24 11:15:00,
2013-11-24 04:16:00,42.1,38.8,29.97,North,0,0.0,0.0,88,0.00,,,0.04,WUHU216HW,2013-11-24 11:16:00,
2013-11-24 04:18:00,42.1,39.2,29.97,North,0,0.0,0.0,89,0.00,,,0.04,WUHU216HW,2013-11-24 11:18:00,
2013-11-24 04:20:00,42.1,39.2,29.97,North,0,0.0,0.0,89,0.00,,,0.04,WUHU216HW,2013-11-24 11:20:00,
2013-11-24 04:21:00,42.1,39.2,29.97,North,0,0.0,0.0,89,0.00,,,0.04,WUHU216HW,2013-11-24 11:21:00,
2013-11-24 04:23:00,42.1,39.2,29.98,North,0,0.0,0.0,89,0.00,,,0.04,WUHU216HW,2013-11-24 11:23:00,
2013-11-24 04:25:00,42.1,39.2,29.98,North,0,0.0,0.0,89,0.00,,,0.04,WUHU216HW,2013-11-24 11:25:00,
2013-11-24 04:26:00,42.1,39.2,29.97,North,0,0.0,0.0,89,0.00,,,0.04,WUHU216HW,2013-11-24 11:26:00,
2013-11-24 04:28:00,42.1,39.2,29.97,North,0,0.0,0.0,89,0.00,,,0.04,WUHU216HW,2013-11-24 11:28:00,
2013-11-24 04:29:00,42.1,39.2,29.97,North,0,0.0,0.0,89,0.00,,,0.04,WUHU216HW,2013-11-24 11:29:00,
2013-11-24 04:31:00,42.1,39.2,29.98,North,0,0.0,0.0,89,0.00,,,0.04,WUHU216HW,2013-11-24 11:31:00,
2013-11-24 04:32:00,42.1,39.2,29.97,North,0,0.0,0.0,89,0.00,,,0.04,WUHU216HW,2013-11-24 11:32:00,
2013-11-24 04:33:00,42.1,39.2,29.97,North,0,0.0,0.0,89,0.00,,,0.04,WUHU216HW,2013-11-24 11:33:00,
2013-11-24 04:34:00,42.1,39.2,29.97,North,0,0.0,0.0,89,0.00,,,0.04,WUHU216HW,2013-11-24 11:34:00,
2013-11-24 04:36:00,42.1,39.2,29.98,North,0,0.0,0.0,89,0.00,,,0.04,WUHU216HW,2013-11-24 11:36:00,
2013-11-24 04:38:00,42.1,39.2,29.97,North,0,0.0,0.0,89,0.00,,,0.04,WUHU216HW,2013-11-24 11:38:00,
2013-11-24 04:39:00,42.1,39.2,29.97,North,0,0.0,0.0,89,0.00,,,0.04,WUHU216HW,2013-11-24 11:39:00,
2013-11-24 04:40:00,42.1,39.2,29.97,North,0,0.0,0.0,89,0.00,,,0.04,WUHU216HW,2013-11-24 11:40:00,
2013-11-24 04:41:00,42.1,39.2,29.97,North,0,0.0,0.0,89,0.00,,,0.04,WUHU216HW,2013-11-24 11:41:00,
2013-11-24 04:44:00,42.1,39.2,29.97,North,0,0.0,0.0,89,0.00,,,0.04,WUHU216HW,2013-11-24 11:44:00,
2013-11-24 04:45:00,42.1,39.2,29.98,North,0,0.0,0.0,89,0.00,,,0.04,WUHU216HW,2013-11-24 11:45:00,
2013-11-24 04:46:00,42.1,39.2,29.98,North,0,0.0,0.0,89,0.00,,,0.04,WUHU216HW,2013-11-24 11:46:00,
2013-11-24 04:47:00,42.1,39.2,29.98,North,0,0.0,0.0,89,0.00,,,0.04,WUHU216HW,2013-11-24 11:47:00,
2013-11-24 04:49:00,42.1,39.2,29.98,North,0,0.0,0.0,89,0.00,,,0.04,WUHU216HW,2013-11-24 11:49:00,
2013-11-24 04:50:00,42.1,39.2,29.97,North,0,0.0,0.0,89,0.00,,,0.04,WUHU216HW,2013-11-24 11:50:00,
2013-11-24 04:51:00,42.1,39.2,29.97,North,0,0.0,0.0,89,0.00,,,0.04,WUHU216HW,2013-11-24 11:51:00,
2013-11-24 04:52:00,42.1,39.2,29.98,North,0,0.0,0.0,89,0.00,,,0.04,WUHU216HW,2013-11-24 11:52:00,
2013-11-24 04:55:00,41.9,39.0,29.98,North,0,0.0,0.0,89,0.00,,,0.04,WUHU216HW,2013-11-24 11:55:00,
2013-11-24 04:56:00,41.9,39.0,29.98,North,0,0.0,0.0,89,0.00,,,0.04,WUHU216HW,2013-11-24 11:56:00,
2013-11-24 04:57:00,41.9,39.0,29.98,North,0,0.0,0.0,89,0.00,,,0.04,WUHU216HW,2013-11-24 11:57:00,
2013-11-24 04:58:00,41.9,39.0,29.98,North,0,0.0,0.0,89,0.00,,,0.04,WUHU216HW,2013-11-24 11:58:00,
2013-11-24 05:01:00,41.9,39.0,29.98,North,0,0.0,0.0,89,0.00,,,0.04,WUHU216HW,2013-11-24 12:01:00,
2013-11-24 05:02:00,41.9,39.0,29.98,North,0,0.0,0.0,89,0.00,,,0.04,WUHU216HW,2013-11-24 12:02:00,
2013-11-24 05:03:00,41.9,39.0,29.98,North,0,0.0,0.0,89,0.00,,,0.04,WUHU216HW,2013-11-24 12:03:00,
2013-11-24 05:04:00,41.9,39.0,29.98,North,0,0.0,0.0,89,0.00,,,0.04,WUHU216HW,2013-11-24 12:04:00,
2013-11-24 05:06:00,41.9,39.0,29.98,North,0,0.0,0.0,89,0.00,,,0.04,WUHU216HW,2013-11-24 12:06:00,
2013-11-24 05:08:00,41.8,38.8,29.98,North,0,0.0,0.0,89,0.00,,,0.04,WUHU216HW,2013-11-24 12:08:00,
2013-11-24 05:10:00,41.8,38.8,29.98,North,0,0.0,0.0,89,0.00,,,0.04,WUHU216HW,2013-11-24 12:10:00,
2013-11-24 05:11:00,41.8,38.8,29.98,North,0,0.0,0.0,89,0.00,,,0.04,WUHU216HW,2013-11-24 12:11:00,
2013-11-24 05:12:00,41.8,38.8,29.98,North,0,0.0,0.0,89,0.00,,,0.04,WUHU216HW,2013-11-24 12:12:00,
2013-11-24 05:13:00,41.8,38.8,29.98,North,0,0.0,0.0,89,0.00,,,0.04,WUHU216HW,2013-11-24 12:13:00,
2013-11-24 05:15:00,41.6,38.6,29.98,North,0,0.0,0.0,89,0.00,,,0.04,WUHU216HW,2013-11-24 12:15:00,
2013-11-24 05:17:00,41.8,38.8,29.98,North,0,0.0,0.0,89,0.00,,,0.04,WUHU216HW,2013-11-24 12:17:00,
2013-11-24 05:18:00,41.6,38.6,29.98,North,0,0.0,0.0,89,0.00,,,0.04,WUHU216HW,2013-11-24 12:18:00,
2013-11-24 05:19:00,41.6,38.6,29.98,North,0,0.0,0.0,89,0.00,,,0.04,WUHU216HW,2013-11-24 12:19:00,
2013-11-24 05:20:00,41.6,38.6,29.98,North,0,0.0,0.0,89,0.00,,,0.04,WUHU216HW,2013-11-24 12:20:00,
2013-11-24 05:21:00,41.6,38.9,29.98,North,0,0.0,0.0,90,0.00,,,0.04,WUHU216HW,2013-11-24 12:21:00,
2013-11-24 05:22:00,41.8,39.1,29.98,North,0,0.0,0.0,90,0.00,,,0.04,WUHU216HW,2013-11-24 12:22:00,
2013-11-24 05:23:00,41.8,39.1,29.98,North,0,0.0,0.0,90,0.00,,,0.04,WUHU216HW,2013-11-24 12:23:00,
2013-11-24 05:24:00,41.8,39.1,29.98,North,0,0.0,0.0,90,0.00,,,0.04,WUHU216HW,2013-11-24 12:24:00,
2013-11-24 05:25:00,41.8,39.1,29.98,North,0,0.0,0.0,90,0.00,,,0.04,WUHU216HW,2013-11-24 12:25:00,
2013-11-24 05:26:00,41.8,39.1,29.98,North,0,0.0,0.0,90,0.00,,,0.04,WUHU216HW,2013-11-24 12:26:00,
2013-11-24 05:29:00,41.8,39.1,29.98,North,0,0.0,0.0,90,0.00,,,0.04,WUHU216HW,2013-11-24 12:29:00,
2013-11-24 05:30:00,41.8,39.1,29.98,North,0,0.0,0.0,90,0.00,,,0.04,WUHU216HW,2013-11-24 12:30:00,
2013-11-24 05:31:00,41.8,39.1,29.98,North,0,0.0,0.0,90,0.00,,,0.04,WUHU216HW,2013-11-24 12:31:00,
2013-11-24 05:32:00,41.8,39.1,29.98,North,0,0.0,0.0,90,0.00,,,0.04,WUHU216HW,2013-11-24 12:32:00,
2013-11-24 05:34:00,41.8,39.1,29.98,North,0,0.0,0.0,90,0.00,,,0.04,WUHU216HW,2013-11-24 12:34:00,
2013-11-24 05:35:00,41.8,39.1,29.98,North,0,0.0,0.0,90,0.00,,,0.04,WUHU216HW,2013-11-24 12:35:00,
2013-11-24 05:37:00,41.8,39.1,29.98,North,0,0.0,0.0,90,0.00,,,0.04,WUHU216HW,2013-11-24 12:37:00,
2013-11-24 05:38:00,41.8,39.1,29.98,North,0,0.0,0.0,90,0.00,,,0.04,WUHU216HW,2013-11-24 12:38:00,
2013-11-24 05:40:00,41.8,39.1,29.98,North,0,0.0,0.0,90,0.00,,,0.04,WUHU216HW,2013-11-24 12:40:00,
2013-11-24 05:41:00,41.8,39.1,29.98,North,0,0.0,0.0,90,0.00,,,0.04,WUHU216HW,2013-11-24 12:41:00,
2013-11-24 05:43:00,41.8,39.1,29.98,North,0,0.0,0.0,90,0.00,,,0.04,WUHU216HW,2013-11-24 12:43:00,
2013-11-24 05:44:00,41.8,39.1,29.98,North,0,0.0,0.0,90,0.00,,,0.04,WUHU216HW,2013-11-24 12:44:00,
2013-11-24 05:45:00,41.8,39.1,29.98,North,0,0.0,0.0,90,0.00,,,0.04,WUHU216HW,2013-11-24 12:45:00,
2013-11-24 05:47:00,41.8,39.1,29.98,North,0,0.0,0.0,90,0.00,,,0.04,WUHU216HW,2013-11-24 12:47:00,
2013-11-24 05:49:00,41.8,39.1,29.98,North,0,0.0,0.0,90,0.00,,,0.04,WUHU216HW,2013-11-24 12:49:00,
2013-11-24 05:50:00,41.8,39.1,29.98,North,0,0.0,0.0,90,0.00,,,0.04,WUHU216HW,2013-11-24 12:50:00,
2013-11-24 05:51:00,41.8,39.1,29.98,North,0,0.0,0.0,90,0.00,,,0.04,WUHU216HW,2013-11-24 12:51:00,
2013-11-24 05:53:00,41.8,39.1,29.98,North,0,0.0,0.0,90,0.00,,,0.04,WUHU216HW,2013-11-24 12:53:00,
2013-11-24 05:55:00,41.8,39.1,29.98,North,0,0.0,0.0,90,0.00,,,0.04,WUHU216HW,2013-11-24 12:55:00,
2013-11-24 05:56:00,41.8,39.1,29.99,North,0,0.0,0.0,90,0.00,,,0.04,WUHU216HW,2013-11-24 12:56:00,
2013-11-24 05:57:00,41.8,39.1,29.99,North,0,0.0,0.0,90,0.00,,,0.04,WUHU216HW,2013-11-24 12:57:00,
2013-11-24 06:00:00,41.6,38.9,29.99,North,0,0.0,0.0,90,0.00,,,0.04,WUHU216HW,2013-11-24 13:00:00,
2013-11-24 06:01:00,41.8,39.1,29.99,North,0,0.0,0.0,90,0.00,,,0.04,WUHU216HW,2013-11-24 13:01:00,
2013-11-24 06:03:00,41.8,39.1,29.99,North,0,0.0,0.0,90,0.00,,,0.04,WUHU216HW,2013-11-24 13:03:00,
2013-11-24 06:05:00,41.8,39.1,29.99,North,0,0.0,0.0,90,0.00,,,0.04,WUHU216HW,2013-11-24 13:05:00,
2013-11-24 06:07:00,41.8,39.1,29.99,North,0,0.0,0.0,90,0.00,,,0.04,WUHU216HW,2013-11-24 13:07:00,
2013-11-24 06:08:00,41.8,38.8,29.99,North,0,0.0,0.0,89,0.00,,,0.04,WUHU216HW,2013-11-24 13:08:00,
2013-11-24 06:09:00,41.8,38.8,29.99,North,0,0.0,0.0,89,0.00,,,0.04,WUHU216HW,2013-11-24 13:09:00,
2013-11-24 06:10:00,41.8,39.1,29.99,North,0,0.0,0.0,90,0.00,,,0.04,WUHU216HW,2013-11-24 13:10:00,
2013-11-24 06:12:00,41.8,38.8,29.99,North,0,0.0,0.0,89,0.00,,,0.04,WUHU216HW,2013-11-24 13:12:00,
2013-11-24 06:13:00,41.8,38.8,29.99,North,0,0.0,0.0,89,0.00,,,0.04,WUHU216HW,2013-11-24 13:13:00,
2013-11-24 06:14:00,41.8,38.8,29.99,North,0,0.0,0.0,89,0.00,,,0.04,WUHU216HW,2013-11-24 13:14:00,
2013-11-24 06:15:00,41.8,39.1,29.99,North,0,0.0,0.0,90,0.00,,,0.04,WUHU216HW,2013-11-24 13:15:00,
2013-11-24 06:16:00,41.8,38.8,29.99,North,0,0.0,0.0,89,0.00,,,0.04,WUHU216HW,2013-11-24 13:16:00,
2013-11-24 06:17:00,41.8,38.8,29.99,North,0,0.0,0.0,89,0.00,,,0.04,WUHU216HW,2013-11-24 13:17:00,
2013-11-24 06:18:00,41.8,38.8,29.99,North,0,0.0,0.0,89,0.00,,,0.04,WUHU216HW,2013-11-24 13:18:00,
2013-11-24 06:19:00,41.8,38.8,29.99,North,0,0.0,0.0,89,0.00,,,0.04,WUHU216HW,2013-11-24 13:19:00,
2013-11-24 06:20:00,41.8,38.8,29.99,North,0,0.0,0.0,89,0.00,,,0.04,WUHU216HW,2013-11-24 13:20:00,
2013-11-24 06:21:00,41.8,38.8,29.99,North,0,0.0,0.0,89,0.00,,,0.04,WUHU216HW,2013-11-24 13:21:00,
2013-11-24 06:23:00,41.8,38.8,29.99,North,0,0.0,0.0,89,0.00,,,0.04,WUHU216HW,2013-11-24 13:23:00,
2013-11-24 06:24:00,41.8,38.8,29.99,North,0,0.0,0.0,89,0.00,,,0.04,WUHU216HW,2013-11-24 13:24:00,
2013-11-24 06:26:00,41.8,38.8,29.99,North,0,0.0,0.0,89,0.00,,,0.04,WUHU216HW,2013-11-24 13:26:00,
2013-11-24 06:28:00,41.9,39.0,29.99,North,0,0.0,0.0,89,0.00,,,0.04,WUHU216HW,2013-11-24 13:28:00,
2013-11-24 06:29:00,41.9,39.0,29.99,North,0,0.0,0.0,89,0.00,,,0.04,WUHU216HW,2013-11-24 13:29:00,
2013-11-24 06:30:00,41.9,39.0,29.99,North,0,0.0,0.0,89,0.00,,,0.04,WUHU216HW,2013-11-24 13:30:00,
2013-11-24 06:31:00,41.9,39.0,29.99,North,0,0.0,0.0,89,0.00,,,0.04,WUHU216HW,2013-11-24 13:31:00,
2013-11-24 06:32:00,41.9,39.0,29.99,North,0,0.0,0.0,89,0.00,,,0.04,WUHU216HW,2013-11-24 13:32:00,
2013-11-24 06:35:00,41.9,39.0,29.99,North,0,0.0,0.0,89,0.00,,,0.04,WUHU216HW,2013-11-24 13:35:00,
2013-11-24 06:37:00,41.9,39.0,29.99,North,0,0.0,0.0,89,0.00,,,0.04,WUHU216HW,2013-11-24 13:37:00,
2013-11-24 06:38:00,41.9,39.0,29.99,North,0,0.0,0.0,89,0.00,,,0.04,WUHU216HW,2013-11-24 13:38:00,
2013-11-24 06:40:00,41.9,39.0,29.99,North,0,0.0,0.0,89,0.00,,,0.04,WUHU216HW,2013-11-24 13:40:00,
2013-11-24 06:42:00,41.9,39.0,29.99,North,0,0.0,0.0,89,0.00,,,0.04,WUHU216HW,2013-11-24 13:42:00,
2013-11-24 06:43:00,41.9,39.0,29.99,North,0,0.0,0.0,89,0.00,,,0.04,WUHU216HW,2013-11-24 13:43:00,
2013-11-24 06:44:00,41.9,39.0,29.99,North,0,0.0,0.0,89,0.00,,,0.04,WUHU216HW,2013-11-24 13:44:00,
2013-11-24 06:45:00,41.9,39.0,29.99,North,0,0.0,0.0,89,0.00,,,0.04,WUHU216HW,2013-11-24 13:45:00,
2013-11-24 06:49:00,41.8,38.8,29.99,North,0,0.0,0.0,89,0.00,,,0.04,WUHU216HW,2013-11-24 13:49:00,
2013-11-24 06:50:00,41.8,38.8,29.99,North,0,0.0,0.0,89,0.00,,,0.04,WUHU216HW,2013-11-24 13:50:00,
2013-11-24 06:51:00,41.8,38.8,29.99,North,0,0.0,0.0,89,0.00,,,0.04,WUHU216HW,2013-11-24 13:51:00,
2013-11-24 06:54:00,41.8,38.8,29.99,North,0,0.0,0.0,89,0.00,,,0.04,WUHU216HW,2013-11-24 13:54:00,
2013-11-24 06:55:00,41.8,38.8,30.00,North,0,0.0,0.0,89,0.00,,,0.04,WUHU216HW,2013-11-24 13:55:00,
2013-11-24 06:56:00,41.8,38.8,30.00,North,0,0.0,0.0,89,0.00,,,0.04,WUHU216HW,2013-11-24 13:56:00,
2013-11-24 06:57:00,41.8,38.8,29.99,North,0,0.0,0.0,89,0.00,,,0.04,WUHU216HW,2013-11-24 13:57:00,
2013-11-24 06:59:00,41.8,38.8,29.99,North,0,0.0,0.0,89,0.00,,,0.04,WUHU216HW,2013-11-24 13:59:00,
2013-11-24 07:00:00,41.8,38.8,29.99,North,0,0.0,0.0,89,0.00,,,0.04,WUHU216HW,2013-11-24 14:00:00,
2013-11-24 07:01:00,41.8,38.8,29.99,North,0,0.0,0.0,89,0.00,,,0.04,WUHU216HW,2013-11-24 14:01:00,
2013-11-24 07:02:00,41.8,38.8,29.99,North,0,0.0,0.0,89,0.00,,,0.04,WUHU216HW,2013-11-24 14:02:00,
2013-11-24 07:03:00,41.8,38.8,29.99,North,0,0.0,0.0,89,0.00,,,0.04,WUHU216HW,2013-11-24 14:03:00,
2013-11-24 07:05:00,41.8,38.8,30.00,North,0,0.0,0.0,89,0.00,,,0.04,WUHU216HW,2013-11-24 14:05:00,
2013-11-24 07:06:00,41.8,38.8,30.00,North,0,0.0,0.0,89,0.00,,,0.04,WUHU216HW,2013-11-24 14:06:00,
2013-11-24 07:07:00,41.8,38.8,30.00,North,0,0.0,0.0,89,0.00,,,0.04,WUHU216HW,2013-11-24 14:07:00,
2013-11-24 07:08:00,41.8,38.8,30.00,North,0,0.0,0.0,89,0.00,,,0.04,WUHU216HW,2013-11-24 14:08:00,
2013-11-24 07:10:00,41.8,38.8,30.00,North,0,0.0,0.0,89,0.00,,,0.04,WUHU216HW,2013-11-24 14:10:00,
2013-11-24 07:11:00,41.8,38.8,30.00,North,0,0.0,0.0,89,0.00,,,0.04,WUHU216HW,2013-11-24 14:11:00,
2013-11-24 07:12:00,41.8,38.8,30.00,North,0,0.0,0.0,89,0.00,,,0.04,WUHU216HW,2013-11-24 14:12:00,
2013-11-24 07:13:00,41.8,38.8,30.00,North,0,0.0,0.0,89,0.00,,,0.04,WUHU216HW,2013-11-24 14:13:00,
2013-11-24 07:17:00,41.8,38.8,30.00,North,0,0.0,0.0,89,0.00,,,0.04,WUHU216HW,2013-11-24 14:17:00,
2013-11-24 07:18:00,41.8,38.8,30.00,North,0,0.0,0.0,89,0.00,,,0.04,WUHU216HW,2013-11-24 14:18:00,
2013-11-24 07:21:00,41.9,39.0,30.00,North,0,0.0,0.0,89,0.00,,,0.04,WUHU216HW,2013-11-24 14:21:00,
2013-11-24 07:22:00,41.9,39.0,30.00,North,0,0.0,0.0,89,0.00,,,0.04,WUHU216HW,2013-11-24 14:22:00,
2013-11-24 07:23:00,41.9,39.0,30.00,North,0,0.0,0.0,89,0.00,,,0.04,WUHU216HW,2013-11-24 14:23:00,
2013-11-24 07:24:00,41.9,39.0,30.00,North,0,0.0,0.0,89,0.00,,,0.04,WUHU216HW,2013-11-24 14:24:00,
2013-11-24 07:26:00,41.9,39.0,30.00,North,0,0.0,0.0,89,0.00,,,0.04,WUHU216HW,2013-11-24 14:26:00,
2013-11-24 07:29:00,41.9,39.0,30.00,North,0,0.0,0.0,89,0.00,,,0.04,WUHU216HW,2013-11-24 14:29:00,
2013-11-24 07:30:00,41.9,39.0,30.00,North,0,0.0,0.0,89,0.00,,,0.04,WUHU216HW,2013-11-24 14:30:00,
2013-11-24 07:31:00,41.9,39.0,30.00,North,0,0.0,0.0,89,0.00,,,0.04,WUHU216HW,2013-11-24 14:31:00,
2013-11-24 07:34:00,41.9,39.0,30.00,North,0,0.0,0.0,89,0.00,,,0.04,WUHU216HW,2013-11-24 14:34:00,
2013-11-24 07:35:00,41.9,39.2,30.00,North,0,0.0,0.0,90,0.00,,,0.04,WUHU216HW,2013-11-24 14:35:00,
2013-11-24 07:36:00,41.9,39.2,30.00,North,0,0.0,0.0,90,0.00,,,0.04,WUHU216HW,2013-11-24 14:36:00,
2013-11-24 07:40:00,41.9,39.2,30.01,North,0,0.0,0.0,90,0.00,,,0.04,WUHU216HW,2013-11-24 14:40:00,
2013-11-24 07:41:00,41.9,39.2,30.01,North,0,0.0,0.0,90,0.00,,,0.04,WUHU216HW,2013-11-24 14:41:00,
2013-11-24 07:42:00,41.9,39.2,30.01,North,0,0.0,0.0,90,0.00,,,0.04,WUHU216HW,2013-11-24 14:42:00,
2013-11-24 07:45:00,41.9,39.2,30.01,North,0,0.0,0.0,90,0.00,,,0.04,WUHU216HW,2013-11-24 14:45:00,
2013-11-24 07:46:00,41.9,39.2,30.01,North,0,0.0,0.0,90,0.00,,,0.04,WUHU216HW,2013-11-24 14:46:00,
2013-11-24 07:47:00,41.9,39.2,30.01,North,0,0.0,0.0,90,0.00,,,0.04,WUHU216HW,2013-11-24 14:47:00,
2013-11-24 07:48:00,41.9,39.2,30.01,North,0,0.0,0.0,90,0.00,,,0.04,WUHU216HW,2013-11-24 14:48:00,
2013-11-24 07:51:00,41.9,39.2,30.01,North,0,0.0,0.0,90,0.00,,,0.04,WUHU216HW,2013-11-24 14:51:00,
2013-11-24 07:52:00,42.1,39.4,30.01,North,0,0.0,0.0,90,0.00,,,0.04,WUHU216HW,2013-11-24 14:52:00,
2013-11-24 07:54:00,42.1,39.4,30.01,North,0,0.0,0.0,90,0.00,,,0.04,WUHU216HW,2013-11-24 14:54:00,
2013-11-24 07:55:00,42.1,39.4,30.01,North,0,0.0,0.0,90,0.00,,,0.04,WUHU216HW,2013-11-24 14:55:00,
2013-11-24 07:56:00,41.9,39.2,30.01,North,0,0.0,0.0,90,0.00,,,0.04,WUHU216HW,2013-11-24 14:56:00,
2013-11-24 07:58:00,42.1,39.4,30.01,North,0,0.0,0.0,90,0.00,,,0.04,WUHU216HW,2013-11-24 14:58:00,
2013-11-24 07:59:00,42.1,39.4,30.01,North,0,0.0,0.0,90,0.00,,,0.04,WUHU216HW,2013-11-24 14:59:00,
2013-11-24 08:00:00,42.1,39.4,30.01,North,0,0.0,0.0,90,0.00,,,0.04,WUHU216HW,2013-11-24 15:00:00,
2013-11-24 08:01:00,42.1,39.4,30.01,North,0,0.0,0.0,90,0.00,,,0.04,WUHU216HW,2013-11-24 15:01:00,
2013-11-24 08:02:00,42.1,39.4,30.01,North,0,0.0,0.0,90,0.00,,,0.04,WUHU216HW,2013-11-24 15:02:00,
2013-11-24 08:04:00,41.9,39.2,30.01,North,0,0.0,0.0,90,0.00,,,0.04,WUHU216HW,2013-11-24 15:04:00,
2013-11-24 08:05:00,41.9,39.2,30.01,North,0,0.0,0.0,90,0.00,,,0.04,WUHU216HW,2013-11-24 15:05:00,
2013-11-24 08:07:00,42.1,39.4,30.01,North,0,0.0,0.0,90,0.00,,,0.04,WUHU216HW,2013-11-24 15:07:00,
2013-11-24 08:08:00,42.1,39.4,30.01,North,0,0.0,0.0,90,0.00,,,0.04,WUHU216HW,2013-11-24 15:08:00,
2013-11-24 08:09:00,42.1,39.4,30.01,North,0,0.0,0.0,90,0.00,,,0.04,WUHU216HW,2013-11-24 15:09:00,
2013-11-24 08:10:00,42.1,39.4,30.01,North,0,0.0,0.0,90,0.01,,,0.05,WUHU216HW,2013-11-24 15:10:00,
2013-11-24 08:11:00,42.1,39.4,30.01,North,0,0.0,0.0,90,0.01,,,0.05,WUHU216HW,2013-11-24 15:11:00,
2013-11-24 08:12:00,42.1,39.4,30.01,North,0,0.0,0.0,90,0.01,,,0.05,WUHU216HW,2013-11-24 15:12:00,
2013-11-24 08:13:00,42.1,39.4,30.01,North,0,0.0,0.0,90,0.01,,,0.05,WUHU216HW,2013-11-24 15:13:00,
2013-11-24 08:15:00,41.9,39.0,30.01,North,0,0.0,0.0,89,0.01,,,0.05,WUHU216HW,2013-11-24 15:15:00,
2013-11-24 08:16:00,41.9,39.0,30.01,North,0,0.0,0.0,89,0.01,,,0.05,WUHU216HW,2013-11-24 15:16:00,
2013-11-24 08:18:00,41.8,38.8,30.01,North,0,0.0,0.0,89,0.01,,,0.05,WUHU216HW,2013-11-24 15:18:00,
2013-11-24 08:19:00,41.8,38.4,30.01,North,0,0.0,0.0,88,0.01,,,0.05,WUHU216HW,2013-11-24 15:19:00,
2013-11-24 08:21:00,41.8,38.4,30.01,North,0,0.0,0.0,88,0.01,,,0.05,WUHU216HW,2013-11-24 15:21:00,
2013-11-24 08:22:00,41.8,38.4,30.01,North,0,0.0,0.0,88,0.01,,,0.05,WUHU216HW,2013-11-24 15:22:00,
2013-11-24 08:23:00,41.6,38.3,30.01,North,0,0.0,0.0,88,0.01,,,0.05,WUHU216HW,2013-11-24 15:23:00,
2013-11-24 08:24:00,41.6,38.3,30.02,North,0,0.0,0.0,88,0.01,,,0.05,WUHU216HW,2013-11-24 15:24:00,
2013-11-24 08:25:00,41.6,38.3,30.02,North,0,0.0,0.0,88,0.01,,,0.05,WUHU216HW,2013-11-24 15:25:00,
2013-11-24 08:27:00,41.6,38.3,30.02,North,0,0.0,0.0,88,0.01,,,0.05,WUHU216HW,2013-11-24 15:27:00,
2013-11-24 08:29:00,41.6,38.3,30.02,North,0,0.0,0.0,88,0.01,,,0.05,WUHU216HW,2013-11-24 15:29:00,
2013-11-24 08:30:00,41.6,38.3,30.02,North,0,0.0,0.0,88,0.01,,,0.05,WUHU216HW,2013-11-24 15:30:00,
2013-11-24 08:32:00,41.6,38.3,30.02,North,0,0.0,0.0,88,0.01,,,0.05,WUHU216HW,2013-11-24 15:32:00,
2013-11-24 08:34:00,41.4,38.1,30.02,North,0,0.0,0.0,88,0.01,,,0.05,WUHU216HW,2013-11-24 15:34:00,
2013-11-24 08:35:00,41.4,38.1,30.02,North,0,0.0,0.0,88,0.01,,,0.05,WUHU216HW,2013-11-24 15:35:00,
2013-11-24 08:37:00,41.4,38.1,30.02,North,0,0.0,0.0,88,0.01,,,0.05,WUHU216HW,2013-11-24 15:37:00,
2013-11-24 08:38:00,41.6,38.3,30.02,North,0,0.0,0.0,88,0.01,,,0.05,WUHU216HW,2013-11-24 15:38:00,
2013-11-24 08:40:00,41.6,38.3,30.02,North,0,0.0,0.0,88,0.01,,,0.05,WUHU216HW,2013-11-24 15:40:00,
2013-11-24 08:42:00,41.6,38.3,30.02,North,0,0.0,0.0,88,0.01,,,0.05,WUHU216HW,2013-11-24 15:42:00,
2013-11-24 08:43:00,41.6,38.3,30.02,North,0,0.0,0.0,88,0.01,,,0.05,WUHU216HW,2013-11-24 15:43:00,
2013-11-24 08:45:00,41.6,38.3,30.02,North,0,0.0,0.0,88,0.01,,,0.05,WUHU216HW,2013-11-24 15:45:00,
2013-11-24 08:49:00,41.8,38.8,30.02,North,0,0.0,0.0,89,0.01,,,0.05,WUHU216HW,2013-11-24 15:49:00,
2013-11-24 08:50:00,41.8,38.8,30.02,North,0,0.0,0.0,89,0.01,,,0.05,WUHU216HW,2013-11-24 15:50:00,
2013-11-24 08:51:00,41.8,38.8,30.02,North,0,0.0,0.0,89,0.01,,,0.05,WUHU216HW,2013-11-24 15:51:00,
2013-11-24 08:52:00,41.8,38.8,30.02,North,0,0.0,0.0,89,0.01,,,0.05,WUHU216HW,2013-11-24 15:52:00,
2013-11-24 08:55:00,41.8,38.8,30.02,North,0,0.0,0.0,89,0.01,,,0.05,WUHU216HW,2013-11-24 15:55:00,
2013-11-24 08:56:00,41.9,39.0,30.02,North,0,0.0,0.0,89,0.01,,,0.05,WUHU216HW,2013-11-24 15:56:00,
2013-11-24 08:57:00,41.9,39.0,30.02,North,0,0.0,0.0,89,0.01,,,0.05,WUHU216HW,2013-11-24 15:57:00,
2013-11-24 09:00:00,41.9,39.0,30.02,North,0,0.0,0.0,89,0.01,,,0.05,WUHU216HW,2013-11-24 16:00:00,
2013-11-24 09:01:00,41.9,39.0,30.02,North,0,0.0,0.0,89,0.01,,,0.05,WUHU216HW,2013-11-24 16:01:00,
2013-11-24 09:02:00,41.9,39.0,30.02,North,0,0.0,0.0,89,0.01,,,0.05,WUHU216HW,2013-11-24 16:02:00,
2013-11-24 09:04:00,42.1,39.2,30.03,North,0,0.0,0.0,89,0.01,,,0.05,WUHU216HW,2013-11-24 16:04:00,
2013-11-24 09:05:00,42.1,39.2,30.03,North,0,0.0,0.0,89,0.01,,,0.05,WUHU216HW,2013-11-24 16:05:00,
2013-11-24 09:06:00,42.1,39.2,30.03,North,0,0.0,0.0,89,0.01,,,0.05,WUHU216HW,2013-11-24 16:06:00,
2013-11-24 09:08:00,42.1,39.2,30.03,North,0,0.0,0.0,89,0.00,,,0.05,WUHU216HW,2013-11-24 16:08:00,
2013-11-24 09:11:00,42.3,39.3,30.03,North,0,0.0,0.0,89,0.00,,,0.05,WUHU216HW,2013-11-24 16:11:00,
2013-11-24 09:12:00,42.5,39.5,30.03,North,0,0.0,0.0,89,0.00,,,0.05,WUHU216HW,2013-11-24 16:12:00,
2013-11-24 09:13:00,42.5,39.5,30.03,North,0,0.0,0.0,89,0.00,,,0.05,WUHU216HW,2013-11-24 16:13:00,
2013-11-24 09:16:00,42.7,39.7,30.03,North,0,0.0,0.0,89,0.00,,,0.05,WUHU216HW,2013-11-24 16:16:00,
2013-11-24 09:17:00,42.7,39.7,30.03,North,0,0.0,0.0,89,0.00,,,0.05,WUHU216HW,2013-11-24 16:17:00,
2013-11-24 09:18:00,42.8,39.9,30.03,North,0,0.0,0.0,89,0.00,,,0.05,WUHU216HW,2013-11-24 16:18:00,
2013-11-24 09:19:00,42.7,39.7,30.03,North,0,0.0,0.0,89,0.00,,,0.05,WUHU216HW,2013-11-24 16:19:00,
2013-11-24 09:20:00,42.8,39.5,30.03,North,0,0.0,0.0,88,0.00,,,0.05,WUHU216HW,2013-11-24 16:20:00,
2013-11-24 09:22:00,42.7,39.3,30.03,North,0,0.0,0.0,88,0.00,,,0.05,WUHU216HW,2013-11-24 16:22:00,
2013-11-24 09:23:00,42.7,39.3,30.03,North,0,0.0,0.0,88,0.00,,,0.05,WUHU216HW,2013-11-24 16:23:00,
2013-11-24 09:24:00,42.7,39.1,30.03,North,0,0.0,0.0,87,0.00,,,0.05,WUHU216HW,2013-11-24 16:24:00,
2013-11-24 09:25:00,42.7,39.1,30.03,North,0,0.0,0.0,87,0.00,,,0.05,WUHU216HW,2013-11-24 16:25:00,
2013-11-24 09:27:00,42.7,39.1,30.03,North,0,0.0,0.0,87,0.00,,,0.05,WUHU216HW,2013-11-24 16:27:00,
2013-11-24 09:28:00,42.7,39.3,30.03,North,0,0.0,0.0,88,0.00,,,0.05,WUHU216HW,2013-11-24 16:28:00,
2013-11-24 09:29:00,42.7,39.1,30.03,North,0,0.0,0.0,87,0.00,,,0.05,WUHU216HW,2013-11-24 16:29:00,
2013-11-24 09:31:00,42.7,39.1,30.04,North,0,0.0,0.0,87,0.00,,,0.05,WUHU216HW,2013-11-24 16:31:00,
2013-11-24 09:32:00,42.5,38.9,30.03,North,0,0.0,0.0,87,0.00,,,0.05,WUHU216HW,2013-11-24 16:32:00,
2013-11-24 09:34:00,42.5,38.9,30.04,North,0,0.0,0.0,87,0.00,,,0.05,WUHU216HW,2013-11-24 16:34:00,
2013-11-24 09:35:00,42.5,38.9,30.04,North,0,0.0,0.0,87,0.00,,,0.05,WUHU216HW,2013-11-24 16:35:00,
2013-11-24 09:36:00,42.5,38.9,30.03,North,0,0.0,0.0,87,0.00,,,0.05,WUHU216HW,2013-11-24 16:36:00,
2013-11-24 09:37:00,42.5,38.9,30.04,North,0,0.0,0.0,87,0.00,,,0.05,WUHU216HW,2013-11-24 16:37:00,
2013-11-24 09:39:00,42.5,38.9,30.04,North,0,0.0,0.0,87,0.00,,,0.05,WUHU216HW,2013-11-24 16:39:00,
2013-11-24 09:40:00,42.7,39.1,30.04,North,0,0.0,0.0,87,0.00,,,0.05,WUHU216HW,2013-11-24 16:40:00,
2013-11-24 09:42:00,42.7,39.1,30.04,North,0,0.0,0.0,87,0.00,,,0.05,WUHU216HW,2013-11-24 16:42:00,
2013-11-24 09:43:00,42.5,38.9,30.04,North,0,0.0,0.0,87,0.00,,,0.05,WUHU216HW,2013-11-24 16:43:00,
2013-11-24 09:44:00,42.5,38.9,30.04,North,0,0.0,0.0,87,0.00,,,0.05,WUHU216HW,2013-11-24 16:44:00,
2013-11-24 09:45:00,42.5,38.5,30.04,North,0,0.0,0.0,86,0.00,,,0.05,WUHU216HW,2013-11-24 16:45:00,
2013-11-24 09:46:00,42.5,38.5,30.04,North,0,0.0,0.0,86,0.00,,,0.05,WUHU216HW,2013-11-24 16:46:00,
2013-11-24 09:48:00,42.5,38.5,30.04,North,0,0.0,0.0,86,0.01,,,0.06,WUHU216HW,2013-11-24 16:48:00,
2013-11-24 09:49:00,42.3,38.3,30.04,North,0,0.0,0.0,86,0.01,,,0.06,WUHU216HW,2013-11-24 16:49:00,
2013-11-24 09:50:00,42.5,38.5,30.04,North,0,0.0,0.0,86,0.01,,,0.06,WUHU216HW,2013-11-24 16:50:00,
2013-11-24 09:52:00,42.3,38.7,30.04,North,0,0.0,0.0,87,0.01,,,0.06,WUHU216HW,2013-11-24 16:52:00,
2013-11-24 09:53:00,42.3,38.7,30.04,North,0,0.0,0.0,87,0.01,,,0.06,WUHU216HW,2013-11-24 16:53:00,
2013-11-24 09:54:00,42.3,38.7,30.04,North,0,0.0,0.0,87,0.01,,,0.06,WUHU216HW,2013-11-24 16:54:00,
2013-11-24 09:55:00,42.3,38.7,30.04,North,0,0.0,0.0,87,0.01,,,0.06,WUHU216HW,2013-11-24 16:55:00,
2013-11-24 09:56:00,42.5,38.9,30.04,North,0,0.0,0.0,87,0.01,,,0.06,WUHU216HW,2013-11-24 16:56:00,
2013-11-24 09:58:00,42.3,38.7,30.04,North,0,0.0,0.0,87,0.01,,,0.06,WUHU216HW,2013-11-24 16:58:00,
2013-11-24 09:59:00,42.5,38.9,30.04,North,0,0.0,0.0,87,0.01,,,0.06,WUHU216HW,2013-11-24 16:59:00,
2013-11-24 10:01:00,42.3,38.7,30.04,North,0,0.0,0.0,87,0.01,,,0.06,WUHU216HW,2013-11-24 17:01:00,
2013-11-24 10:03:00,42.5,38.9,30.04,North,0,0.0,0.0,87,0.01,,,0.06,WUHU216HW,2013-11-24 17:03:00,
2013-11-24 10:04:00,42.3,38.7,30.04,North,0,0.0,0.0,87,0.01,,,0.06,WUHU216HW,2013-11-24 17:04:00,
2013-11-24 10:05:00,42.5,38.9,30.04,North,0,0.0,0.0,87,0.01,,,0.06,WUHU216HW,2013-11-24 17:05:00,
2013-11-24 10:06:00,42.5,38.9,30.04,North,0,0.0,0.0,87,0.01,,,0.06,WUHU216HW,2013-11-24 17:06:00,
2013-11-24 10:10:00,42.5,38.9,30.04,North,0,0.0,0.0,87,0.01,,,0.06,WUHU216HW,2013-11-24 17:10:00,
2013-11-24 10:11:00,42.5,38.9,30.04,North,0,0.0,0.0,87,0.01,,,0.06,WUHU216HW,2013-11-24 17:11:00,
2013-11-24 10:12:00,42.5,38.9,30.04,North,0,0.0,0.0,87,0.01,,,0.06,WUHU216HW,2013-11-24 17:12:00,
2013-11-24 10:16:00,42.5,38.9,30.04,North,0,0.0,0.0,87,0.01,,,0.06,WUHU216HW,2013-11-24 17:16:00,
2013-11-24 10:17:00,42.7,39.1,30.05,North,0,0.0,0.0,87,0.01,,,0.06,WUHU216HW,2013-11-24 17:17:00,
2013-11-24 10:18:00,42.5,38.9,30.05,North,0,0.0,0.0,87,0.01,,,0.06,WUHU216HW,2013-11-24 17:18:00,
2013-11-24 10:19:00,42.5,38.9,30.05,North,0,0.0,0.0,87,0.01,,,0.06,WUHU216HW,2013-11-24 17:19:00,
2013-11-24 10:22:00,42.5,38.9,30.05,North,0,0.0,0.0,87,0.01,,,0.06,WUHU216HW,2013-11-24 17:22:00,
2013-11-24 10:24:00,42.5,38.9,30.05,North,0,0.0,0.0,87,0.01,,,0.06,WUHU216HW,2013-11-24 17:24:00,
2013-11-24 10:26:00,42.7,39.1,30.05,North,0,0.0,0.0,87,0.01,,,0.06,WUHU216HW,2013-11-24 17:26:00,
2013-11-24 10:27:00,42.7,39.1,30.05,North,0,0.0,0.0,87,0.01,,,0.06,WUHU216HW,2013-11-24 17:27:00,
2013-11-24 10:29:00,42.7,39.1,30.04,North,0,0.0,0.0,87,0.01,,,0.06,WUHU216HW,2013-11-24 17:29:00,
2013-11-24 10:30:00,42.8,39.3,30.05,North,0,0.0,0.0,87,0.01,,,0.06,WUHU216HW,2013-11-24 17:30:00,
2013-11-24 10:31:00,42.8,39.3,30.05,North,0,0.0,0.0,87,0.01,,,0.06,WUHU216HW,2013-11-24 17:31:00,
2013-11-24 10:33:00,42.8,39.3,30.04,North,0,0.0,0.0,87,0.01,,,0.06,WUHU216HW,2013-11-24 17:33:00,
2013-11-24 10:35:00,42.8,39.3,30.05,North,0,0.0,0.0,87,0.01,,,0.06,WUHU216HW,2013-11-24 17:35:00,
2013-11-24 10:36:00,42.8,39.3,30.05,North,0,0.0,0.0,87,0.01,,,0.06,WUHU216HW,2013-11-24 17:36:00,
2013-11-24 10:38:00,42.8,39.3,30.05,North,0,0.0,0.0,87,0.01,,,0.06,WUHU216HW,2013-11-24 17:38:00,
2013-11-24 10:40:00,43.0,39.4,30.04,North,0,0.0,0.0,87,0.01,,,0.06,WUHU216HW,2013-11-24 17:40:00,
2013-11-24 10:41:00,43.0,39.4,30.04,North,0,0.0,0.0,87,0.01,,,0.06,WUHU216HW,2013-11-24 17:41:00,
2013-11-24 10:42:00,43.0,39.4,30.05,North,0,0.0,0.0,87,0.01,,,0.06,WUHU216HW,2013-11-24 17:42:00,
2013-11-24 10:43:00,43.0,39.4,30.05,North,0,0.0,0.0,87,0.01,,,0.06,WUHU216HW,2013-11-24 17:43:00,
2013-11-24 10:44:00,43.0,39.4,30.05,North,0,0.0,0.0,87,0.01,,,0.06,WUHU216HW,2013-11-24 17:44:00,
2013-11-24 10:45:00,43.0,39.4,30.04,North,0,0.0,0.0,87,0.00,,,0.06,WUHU216HW,2013-11-24 17:45:00,
2013-11-24 10:46:00,43.0,39.4,30.04,North,0,0.0,0.0,87,0.00,,,0.06,WUHU216HW,2013-11-24 17:46:00,
2013-11-24 10:47:00,43.2,39.6,30.04,North,0,0.0,0.0,87,0.00,,,0.06,WUHU216HW,2013-11-24 17:47:00,
2013-11-24 10:48:00,43.2,39.6,30.04,North,0,0.0,0.0,87,0.00,,,0.06,WUHU216HW,2013-11-24 17:48:00,
2013-11-24 10:50:00,43.2,39.2,30.04,North,0,0.0,0.0,86,0.00,,,0.06,WUHU216HW,2013-11-24 17:50:00,
2013-11-24 10:51:00,43.2,39.2,30.04,North,0,0.0,0.0,86,0.00,,,0.06,WUHU216HW,2013-11-24 17:51:00,
2013-11-24 10:52:00,43.2,39.2,30.04,North,0,0.0,0.0,86,0.00,,,0.06,WUHU216HW,2013-11-24 17:52:00,
2013-11-24 10:53:00,43.2,39.6,30.04,North,0,0.0,0.0,87,0.00,,,0.06,WUHU216HW,2013-11-24 17:53:00,
2013-11-24 10:56:00,43.2,39.2,30.04,North,0,0.0,0.0,86,0.00,,,0.06,WUHU216HW,2013-11-24 17:56:00,
2013-11-24 10:57:00,43.2,39.0,30.04,North,0,0.0,0.0,85,0.00,,,0.06,WUHU216HW,2013-11-24 17:57:00,
2013-11-24 10:58:00,43.2,39.0,30.04,North,0,0.0,0.0,85,0.00,,,0.06,WUHU216HW,2013-11-24 17:58:00,
2013-11-24 11:02:00,43.4,39.8,30.04,North,0,0.0,0.0,87,0.00,,,0.06,WUHU216HW,2013-11-24 18:02:00,
2013-11-24 11:03:00,43.4,39.8,30.04,North,0,0.0,0.0,87,0.00,,,0.06,WUHU216HW,2013-11-24 18:03:00,
2013-11-24 11:04:00,43.4,39.8,30.04,North,0,0.0,0.0,87,0.00,,,0.06,WUHU216HW,2013-11-24 18:04:00,
2013-11-24 11:05:00,43.4,39.8,30.04,North,0,0.0,0.0,87,0.00,,,0.06,WUHU216HW,2013-11-24 18:05:00,
2013-11-24 11:07:00,43.6,40.0,30.04,North,0,0.0,0.0,87,0.00,,,0.06,WUHU216HW,2013-11-24 18:07:00,
2013-11-24 11:09:00,43.6,40.0,30.04,North,0,0.0,0.0,87,0.00,,,0.06,WUHU216HW,2013-11-24 18:09:00,
2013-11-24 11:10:00,43.6,40.0,30.04,North,0,0.0,0.0,87,0.00,,,0.06,WUHU216HW,2013-11-24 18:10:00,
2013-11-24 11:11:00,43.7,40.2,30.04,North,0,0.0,0.0,87,0.00,,,0.06,WUHU216HW,2013-11-24 18:11:00,
2013-11-24 11:13:00,43.7,40.2,30.04,North,0,0.0,0.0,87,0.00,,,0.06,WUHU216HW,2013-11-24 18:13:00,
2013-11-24 11:14:00,43.7,39.8,30.04,North,0,0.0,0.0,86,0.00,,,0.06,WUHU216HW,2013-11-24 18:14:00,
2013-11-24 11:16:00,43.7,39.8,30.04,North,0,0.0,0.0,86,0.00,,,0.06,WUHU216HW,2013-11-24 18:16:00,
2013-11-24 11:17:00,43.7,39.8,30.04,North,0,0.0,0.0,86,0.00,,,0.06,WUHU216HW,2013-11-24 18:17:00,
2013-11-24 11:19:00,43.7,39.5,30.04,North,0,0.0,0.0,85,0.00,,,0.06,WUHU216HW,2013-11-24 18:19:00,
2013-11-24 11:20:00,43.7,39.5,30.04,North,0,0.0,0.0,85,0.00,,,0.06,WUHU216HW,2013-11-24 18:20:00,
2013-11-24 11:21:00,43.7,39.5,30.04,North,0,0.0,0.0,85,0.00,,,0.06,WUHU216HW,2013-11-24 18:21:00,
2013-11-24 11:22:00,43.7,39.5,30.04,North,0,0.0,0.0,85,0.00,,,0.06,WUHU216HW,2013-11-24 18:22:00,
2013-11-24 11:24:00,43.7,39.5,30.04,North,0,0.0,0.0,85,0.00,,,0.06,WUHU216HW,2013-11-24 18:24:00,
2013-11-24 11:25:00,43.7,39.5,30.04,North,0,0.0,0.0,85,0.00,,,0.06,WUHU216HW,2013-11-24 18:25:00,
2013-11-24 11:27:00,43.9,39.7,30.04,North,0,0.0,0.0,85,0.00,,,0.06,WUHU216HW,2013-11-24 18:27:00,
2013-11-24 11:28:00,43.9,39.7,30.04,North,0,0.0,0.0,85,0.00,,,0.06,WUHU216HW,2013-11-24 18:28:00,
2013-11-24 11:30:00,43.9,39.7,30.04,North,0,0.0,0.0,85,0.00,,,0.06,WUHU216HW,2013-11-24 18:30:00,
2013-11-24 11:32:00,43.9,39.4,30.04,North,0,0.0,0.0,84,0.00,,,0.06,WUHU216HW,2013-11-24 18:32:00,
2013-11-24 11:33:00,44.1,39.6,30.04,North,0,0.0,0.0,84,0.00,,,0.06,WUHU216HW,2013-11-24 18:33:00,
2013-11-24 11:35:00,44.1,39.6,30.04,North,0,0.0,0.0,84,0.00,,,0.06,WUHU216HW,2013-11-24 18:35:00,
2013-11-24 11:36:00,44.1,39.6,30.04,North,0,0.0,0.0,84,0.00,,,0.06,WUHU216HW,2013-11-24 18:36:00,
2013-11-24 11:38:00,44.1,39.6,30.04,North,0,0.0,0.0,84,0.00,,,0.06,WUHU216HW,2013-11-24 18:38:00,
2013-11-24 11:40:00,44.1,39.2,30.04,North,0,0.0,0.0,83,0.00,,,0.06,WUHU216HW,2013-11-24 18:40:00,
2013-11-24 11:41:00,44.1,39.2,30.04,North,0,0.0,0.0,83,0.00,,,0.06,WUHU216HW,2013-11-24 18:41:00,
2013-11-24 11:42:00,44.1,39.2,30.04,North,0,0.0,0.0,83,0.00,,,0.06,WUHU216HW,2013-11-24 18:42:00,
2013-11-24 11:43:00,44.1,39.2,30.04,North,0,0.0,0.0,83,0.00,,,0.06,WUHU216HW,2013-11-24 18:43:00,
2013-11-24 11:46:00,44.3,39.4,30.04,North,0,0.0,0.0,83,0.00,,,0.06,WUHU216HW,2013-11-24 18:46:00,
2013-11-24 11:47:00,44.3,39.4,30.04,North,0,0.0,0.0,83,0.00,,,0.06,WUHU216HW,2013-11-24 18:47:00,
2013-11-24 11:48:00,44.3,39.4,30.04,North,0,0.0,0.0,83,0.00,,,0.06,WUHU216HW,2013-11-24 18:48:00,
2013-11-24 11:50:00,44.3,39.4,30.04,North,0,0.0,0.0,83,0.00,,,0.06,WUHU216HW,2013-11-24 18:50:00,
2013-11-24 11:51:00,44.3,39.4,30.04,North,0,0.0,0.0,83,0.00,,,0.06,WUHU216HW,2013-11-24 18:51:00,
2013-11-24 11:53:00,44.5,40.0,30.04,North,0,0.0,0.0,84,0.00,,,0.06,WUHU216HW,2013-11-24 18:53:00,
2013-11-24 11:54:00,44.5,40.0,30.04,North,0,0.0,0.0,84,0.00,,,0.06,WUHU216HW,2013-11-24 18:54:00,
2013-11-24 11:56:00,44.5,39.6,30.04,North,0,0.0,0.0,83,0.00,,,0.06,WUHU216HW,2013-11-24 18:56:00,
2013-11-24 11:57:00,44.6,39.8,30.03,North,0,0.0,0.0,83,0.00,,,0.06,WUHU216HW,2013-11-24 18:57:00,
2013-11-24 11:58:00,44.6,39.8,30.03,North,0,0.0,0.0,83,0.00,,,0.06,WUHU216HW,2013-11-24 18:58:00,
2013-11-24 11:59:00,44.6,39.8,30.03,North,0,0.0,0.0,83,0.00,,,0.06,WUHU216HW,2013-11-24 18:59:00,
2013-11-24 12:00:00,44.6,39.8,30.03,North,0,0.0,0.0,83,0.00,,,0.06,WUHU216HW,2013-11-24 19:00:00,
2013-11-24 12:01:00,44.6,39.8,30.03,North,0,0.0,0.0,83,0.00,,,0.06,WUHU216HW,2013-11-24 19:01:00,
2013-11-24 12:02:00,44.6,39.8,30.03,North,0,0.0,0.0,83,0.00,,,0.06,WUHU216HW,2013-11-24 19:02:00,
2013-11-24 12:04:00,44.6,39.8,30.03,North,0,0.0,0.0,83,0.00,,,0.06,WUHU216HW,2013-11-24 19:04:00,
2013-11-24 12:05:00,44.6,39.8,30.03,North,0,0.0,0.0,83,0.00,,,0.06,WUHU216HW,2013-11-24 19:05:00,
2013-11-24 12:06:00,44.6,39.8,30.03,North,0,0.0,0.0,83,0.00,,,0.06,WUHU216HW,2013-11-24 19:06:00,
2013-11-24 12:09:00,44.6,39.5,30.03,North,0,0.0,0.0,82,0.00,,,0.06,WUHU216HW,2013-11-24 19:09:00,
2013-11-24 12:10:00,44.6,39.8,30.03,North,0,0.0,0.0,83,0.00,,,0.06,WUHU216HW,2013-11-24 19:10:00,
2013-11-24 12:12:00,44.6,39.8,30.03,North,0,0.0,0.0,83,0.00,,,0.06,WUHU216HW,2013-11-24 19:12:00,
2013-11-24 12:15:00,45.0,40.1,30.03,North,0,0.0,0.0,83,0.00,,,0.06,WUHU216HW,2013-11-24 19:15:00,
2013-11-24 12:16:00,45.0,40.1,30.03,North,0,0.0,0.0,83,0.00,,,0.06,WUHU216HW,2013-11-24 19:16:00,
2013-11-24 12:17:00,45.0,40.1,30.03,North,0,0.0,0.0,83,0.00,,,0.06,WUHU216HW,2013-11-24 19:17:00,
2013-11-24 12:19:00,45.0,40.1,30.03,North,0,0.0,0.0,83,0.00,,,0.06,WUHU216HW,2013-11-24 19:19:00,
2013-11-24 12:21:00,45.0,40.1,30.03,North,0,0.0,0.0,83,0.00,,,0.06,WUHU216HW,2013-11-24 19:21:00,
2013-11-24 12:23:00,45.2,40.3,30.03,North,0,0.0,0.0,83,0.00,,,0.06,WUHU216HW,2013-11-24 19:23:00,
2013-11-24 12:24:00,45.2,40.1,30.02,North,0,0.0,0.0,82,0.00,,,0.06,WUHU216HW,2013-11-24 19:24:00,
2013-11-24 12:26:00,45.2,39.7,30.03,North,0,0.0,0.0,81,0.00,,,0.06,WUHU216HW,2013-11-24 19:26:00,
2013-11-24 12:27:00,45.2,39.7,30.02,North,0,0.0,0.0,81,0.00,,,0.06,WUHU216HW,2013-11-24 19:27:00,
2013-11-24 12:28:00,45.2,39.7,30.02,North,0,0.0,0.0,81,0.00,,,0.06,WUHU216HW,2013-11-24 19:28:00,
2013-11-24 12:29:00,45.0,39.5,30.02,North,0,0.0,0.0,81,0.00,,,0.06,WUHU216HW,2013-11-24 19:29:00,
2013-11-24 12:31:00,45.2,39.7,30.02,North,0,0.0,0.0,81,0.00,,,0.06,WUHU216HW,2013-11-24 19:31:00,
2013-11-24 12:32:00,45.2,39.7,30.02,North,0,0.0,0.0,81,0.00,,,0.06,WUHU216HW,2013-11-24 19:32:00,
2013-11-24 12:33:00,45.2,39.7,30.02,North,0,0.0,0.0,81,0.00,,,0.06,WUHU216HW,2013-11-24 19:33:00,
2013-11-24 12:34:00,45.2,39.7,30.02,North,0,0.0,0.0,81,0.00,,,0.06,WUHU216HW,2013-11-24 19:34:00,
2013-11-24 12:35:00,45.0,39.5,30.02,North,0,0.0,0.0,81,0.00,,,0.06,WUHU216HW,2013-11-24 19:35:00,
2013-11-24 12:37:00,45.2,39.7,30.02,North,0,0.0,0.0,81,0.00,,,0.06,WUHU216HW,2013-11-24 19:37:00,
2013-11-24 12:38:00,45.2,39.7,30.02,North,0,0.0,0.0,81,0.00,,,0.06,WUHU216HW,2013-11-24 19:38:00,
2013-11-24 12:39:00,45.2,39.7,30.02,North,0,0.0,0.0,81,0.00,,,0.06,WUHU216HW,2013-11-24 19:39:00,
2013-11-24 12:40:00,45.2,39.7,30.02,North,0,0.0,0.0,81,0.00,,,0.06,WUHU216HW,2013-11-24 19:40:00,
2013-11-24 12:42:00,45.2,39.7,30.02,North,0,0.0,0.0,81,0.00,,,0.06,WUHU216HW,2013-11-24 19:42:00,
2013-11-24 12:43:00,45.2,39.7,30.02,North,0,0.0,0.0,81,0.00,,,0.06,WUHU216HW,2013-11-24 19:43:00,
2013-11-24 12:45:00,45.2,39.7,30.02,North,0,0.0,0.0,81,0.00,,,0.06,WUHU216HW,2013-11-24 19:45:00,
2013-11-24 12:47:00,45.4,39.9,30.02,North,0,0.0,0.0,81,0.00,,,0.06,WUHU216HW,2013-11-24 19:47:00,
2013-11-24 12:50:00,45.4,39.9,30.01,North,0,0.0,0.0,81,0.00,,,0.06,WUHU216HW,2013-11-24 19:50:00,
2013-11-24 12:51:00,45.4,39.9,30.01,North,0,0.0,0.0,81,0.00,,,0.06,WUHU216HW,2013-11-24 19:51:00,
2013-11-24 12:52:00,45.4,39.9,30.01,North,0,0.0,0.0,81,0.00,,,0.06,WUHU216HW,2013-11-24 19:52:00,
2013-11-24 12:54:00,45.2,39.4,30.01,North,0,0.0,0.0,80,0.00,,,0.06,WUHU216HW,2013-11-24 19:54:00,
2013-11-24 12:56:00,45.2,39.4,30.02,North,0,0.0,0.0,80,0.00,,,0.06,WUHU216HW,2013-11-24 19:56:00,
2013-11-24 12:57:00,45.2,39.7,30.01,North,0,0.0,0.0,81,0.00,,,0.06,WUHU216HW,2013-11-24 19:57:00,
2013-11-24 12:58:00,45.4,39.9,30.01,North,0,0.0,0.0,81,0.00,,,0.06,WUHU216HW,2013-11-24 19:58:00,
2013-11-24 12:59:00,45.2,39.7,30.01,North,0,0.0,0.0,81,0.00,,,0.06,WUHU216HW,2013-11-24 19:59:00,
2013-11-24 13:00:00,45.2,39.7,30.01,North,0,0.0,0.0,81,0.00,,,0.06,WUHU216HW,2013-11-24 20:00:00,
2013-11-24 13:01:00,45.2,39.7,30.01,North,0,0.0,0.0,81,0.00,,,0.06,WUHU216HW,2013-11-24 20:01:00,
2013-11-24 13:02:00,45.2,39.7,30.01,North,0,0.0,0.0,81,0.00,,,0.06,WUHU216HW,2013-11-24 20:02:00,
2013-11-24 13:04:00,45.2,39.7,30.01,North,0,0.0,0.0,81,0.00,,,0.06,WUHU216HW,2013-11-24 20:04:00,
2013-11-24 13:05:00,45.0,39.5,30.01,North,0,0.0,0.0,81,0.00,,,0.06,WUHU216HW,2013-11-24 20:05:00,
2013-11-24 13:06:00,45.0,39.5,30.01,North,0,0.0,0.0,81,0.00,,,0.06,WUHU216HW,2013-11-24 20:06:00,
2013-11-24 13:07:00,45.0,39.5,30.01,North,0,0.0,0.0,81,0.00,,,0.06,WUHU216HW,2013-11-24 20:07:00,
2013-11-24 13:08:00,45.2,39.7,30.01,North,0,0.0,0.0,81,0.00,,,0.06,WUHU216HW,2013-11-24 20:08:00,
2013-11-24 13:10:00,45.2,39.7,30.01,North,0,0.0,0.0,81,0.00,,,0.06,WUHU216HW,2013-11-24 20:10:00,
2013-11-24 13:11:00,45.2,39.7,30.01,North,0,0.0,0.0,81,0.00,,,0.06,WUHU216HW,2013-11-24 20:11:00,
2013-11-24 13:12:00,45.2,39.4,30.01,North,0,0.0,0.0,80,0.00,,,0.06,WUHU216HW,2013-11-24 20:12:00,
2013-11-24 13:13:00,45.0,39.2,30.01,North,0,0.0,0.0,80,0.00,,,0.06,WUHU216HW,2013-11-24 20:13:00,
2013-11-24 13:14:00,45.2,39.4,30.01,North,0,0.0,0.0,80,0.00,,,0.06,WUHU216HW,2013-11-24 20:14:00,
2013-11-24 13:16:00,45.0,39.5,30.01,North,0,0.0,0.0,81,0.00,,,0.06,WUHU216HW,2013-11-24 20:16:00,
2013-11-24 13:17:00,45.0,39.5,30.01,North,0,0.0,0.0,81,0.00,,,0.06,WUHU216HW,2013-11-24 20:17:00,
2013-11-24 13:18:00,45.2,39.7,30.01,North,0,0.0,0.0,81,0.00,,,0.06,WUHU216HW,2013-11-24 20:18:00,
2013-11-24 13:19:00,45.2,39.7,30.01,North,0,0.0,0.0,81,0.00,,,0.06,WUHU216HW,2013-11-24 20:19:00,
2013-11-24 13:22:00,45.5,40.1,30.01,North,0,0.0,0.0,81,0.00,,,0.06,WUHU216HW,2013-11-24 20:22:00,
2013-11-24 13:23:00,45.5,40.1,30.01,North,0,0.0,0.0,81,0.00,,,0.06,WUHU216HW,2013-11-24 20:23:00,
2013-11-24 13:24:00,45.5,40.1,30.01,North,0,0.0,0.0,81,0.00,,,0.06,WUHU216HW,2013-11-24 20:24:00,
2013-11-24 13:25:00,45.5,40.1,30.01,North,0,0.0,0.0,81,0.00,,,0.06,WUHU216HW,2013-11-24 20:25:00,
2013-11-24 13:26:00,45.5,40.1,30.01,North,0,0.0,0.0,81,0.00,,,0.06,WUHU216HW,2013-11-24 20:26:00,
2013-11-24 13:29:00,45.7,40.2,30.00,North,0,0.0,0.0,81,0.00,,,0.06,WUHU216HW,2013-11-24 20:29:00,
2013-11-24 13:30:00,45.9,40.4,30.01,North,0,0.0,0.0,81,0.00,,,0.06,WUHU216HW,2013-11-24 20:30:00,
2013-11-24 13:31:00,45.9,40.4,30.01,North,0,0.0,0.0,81,0.00,,,0.06,WUHU216HW,2013-11-24 20:31:00,
2013-11-24 13:33:00,45.9,40.8,30.01,North,0,0.0,0.0,82,0.00,,,0.06,WUHU216HW,2013-11-24 20:33:00,
2013-11-24 13:34:00,46.1,41.0,30.01,North,0,0.0,0.0,82,0.00,,,0.06,WUHU216HW,2013-11-24 20:34:00,
2013-11-24 13:36:00,46.3,41.1,30.01,North,0,0.0,0.0,82,0.00,,,0.06,WUHU216HW,2013-11-24 20:36:00,
2013-11-24 13:37:00,46.3,41.1,30.01,North,0,0.0,0.0,82,0.00,,,0.06,WUHU216HW,2013-11-24 20:37:00,
2013-11-24 13:38:00,46.4,41.3,30.00,North,0,0.0,0.0,82,0.00,,,0.06,WUHU216HW,2013-11-24 20:38:00,
2013-11-24 13:40:00,46.4,41.3,30.00,North,0,0.0,0.0,82,0.00,,,0.06,WUHU216HW,2013-11-24 20:40:00,
2013-11-24 13:41:00,46.4,41.0,30.00,North,0,0.0,0.0,81,0.00,,,0.06,WUHU216HW,2013-11-24 20:41:00,
2013-11-24 13:42:00,46.6,41.1,30.00,North,0,0.0,0.0,81,0.00,,,0.06,WUHU216HW,2013-11-24 20:42:00,
2013-11-24 13:44:00,46.8,41.3,30.00,North,0,0.0,0.0,81,0.00,,,0.06,WUHU216HW,2013-11-24 20:44:00,
2013-11-24 13:49:00,47.0,41.1,30.00,North,0,0.0,0.0,80,0.00,,,0.06,WUHU216HW,2013-11-24 20:49:00,
2013-11-24 13:50:00,47.0,41.1,30.00,North,0,0.0,0.0,80,0.00,,,0.06,WUHU216HW,2013-11-24 20:50:00,
2013-11-24 13:51:00,47.2,41.3,30.00,North,0,0.0,0.0,80,0.00,,,0.06,WUHU216HW,2013-11-24 20:51:00,
2013-11-24 13:55:00,47.3,41.5,30.00,North,0,0.0,0.0,80,0.00,,,0.06,WUHU216HW,2013-11-24 20:55:00,
2013-11-24 13:56:00,47.3,41.5,30.00,North,0,0.0,0.0,80,0.00,,,0.06,WUHU216HW,2013-11-24 20:56:00,
2013-11-24 13:58:00,47.5,41.7,30.00,North,0,0.0,0.0,80,0.00,,,0.06,WUHU216HW,2013-11-24 20:58:00,
2013-11-24 14:00:00,47.7,41.9,30.00,North,0,0.0,0.0,80,0.00,,,0.06,WUHU216HW,2013-11-24 21:00:00,
2013-11-24 14:01:00,47.7,41.9,30.00,North,0,0.0,0.0,80,0.00,,,0.06,WUHU216HW,2013-11-24 21:01:00,
2013-11-24 14:02:00,47.7,41.9,30.00,North,0,0.0,0.0,80,0.00,,,0.06,WUHU216HW,2013-11-24 21:02:00,
2013-11-24 14:03:00,47.9,41.9,30.00,North,0,0.0,0.0,80,0.00,,,0.06,WUHU216HW,2013-11-24 21:03:00,
2013-11-24 14:05:00,47.9,41.9,30.00,North,0,0.0,0.0,80,0.00,,,0.06,WUHU216HW,2013-11-24 21:05:00,
2013-11-24 14:07:00,48.1,42.1,30.00,North,0,0.0,0.0,80,0.00,,,0.06,WUHU216HW,2013-11-24 21:07:00,
2013-11-24 14:08:00,48.1,42.1,30.00,North,0,0.0,0.0,80,0.00,,,0.06,WUHU216HW,2013-11-24 21:08:00,
2013-11-24 14:09:00,48.2,42.3,30.00,North,0,0.0,0.0,80,0.00,,,0.06,WUHU216HW,2013-11-24 21:09:00,
2013-11-24 14:10:00,48.2,42.3,30.00,North,0,0.0,0.0,80,0.00,,,0.06,WUHU216HW,2013-11-24 21:10:00,
2013-11-24 14:12:00,48.4,42.5,30.00,North,0,0.0,0.0,80,0.00,,,0.06,WUHU216HW,2013-11-24 21:12:00,
2013-11-24 14:13:00,48.4,42.5,30.00,North,0,0.0,0.0,80,0.00,,,0.06,WUHU216HW,2013-11-24 21:13:00,
2013-11-24 14:14:00,48.4,42.5,30.00,North,0,0.0,0.0,80,0.00,,,0.06,WUHU216HW,2013-11-24 21:14:00,
2013-11-24 14:16:00,48.6,42.3,30.00,North,0,0.0,0.0,79,0.00,,,0.06,WUHU216HW,2013-11-24 21:16:00,
2013-11-24 14:18:00,48.4,41.8,30.00,North,0,0.0,0.0,78,0.00,,,0.06,WUHU216HW,2013-11-24 21:18:00,
2013-11-24 14:19:00,48.4,41.8,30.00,North,0,0.0,0.0,78,0.00,,,0.06,WUHU216HW,2013-11-24 21:19:00,
2013-11-24 14:20:00,48.4,41.8,30.00,North,0,0.0,0.0,78,0.00,,,0.06,WUHU216HW,2013-11-24 21:20:00,
2013-11-24 14:21:00,48.4,41.8,30.00,North,0,0.0,0.0,78,0.00,,,0.06,WUHU216HW,2013-11-24 21:21:00,
2013-11-24 14:22:00,48.4,40.8,30.00,North,0,0.0,0.0,75,0.00,,,0.06,WUHU216HW,2013-11-24 21:22:00,
2013-11-24 14:23:00,48.2,40.2,30.00,North,0,0.0,0.0,74,0.00,,,0.06,WUHU216HW,2013-11-24 21:23:00,
2013-11-24 14:24:00,48.2,40.2,30.00,North,0,0.0,0.0,74,0.00,,,0.06,WUHU216HW,2013-11-24 21:24:00,
2013-11-24 14:25:00,48.2,40.6,30.00,North,0,0.0,0.0,75,0.00,,,0.06,WUHU216HW,2013-11-24 21:25:00,
2013-11-24 14:26:00,48.1,40.8,30.00,North,0,0.0,0.0,76,0.00,,,0.06,WUHU216HW,2013-11-24 21:26:00,
2013-11-24 14:28:00,48.2,40.6,30.00,North,0,0.0,0.0,75,0.00,,,0.06,WUHU216HW,2013-11-24 21:28:00,
2013-11-24 14:29:00,48.1,40.4,30.00,North,0,0.0,0.0,75,0.00,,,0.06,WUHU216HW,2013-11-24 21:29:00,
2013-11-24 14:30:00,48.1,40.4,30.00,North,0,0.0,0.0,75,0.00,,,0.06,WUHU216HW,2013-11-24 21:30:00,
2013-11-24 14:31:00,48.2,41.0,30.00,North,0,0.0,0.0,76,0.00,,,0.06,WUHU216HW,2013-11-24 21:31:00,
2013-11-24 14:33:00,48.2,41.0,30.00,North,0,0.0,0.0,76,0.00,,,0.06,WUHU216HW,2013-11-24 21:33:00,
2013-11-24 14:35:00,48.2,40.6,30.00,North,0,0.0,0.0,75,0.00,,,0.06,WUHU216HW,2013-11-24 21:35:00,
2013-11-24 14:36:00,48.2,40.2,30.00,North,0,0.0,0.0,74,0.00,,,0.06,WUHU216HW,2013-11-24 21:36:00,
2013-11-24 14:37:00,48.2,40.6,30.00,North,0,0.0,0.0,75,0.00,,,0.06,WUHU216HW,2013-11-24 21:37:00,
2013-11-24 14:39:00,47.9,40.2,30.00,North,0,0.0,0.0,75,0.00,,,0.06,WUHU216HW,2013-11-24 21:39:00,
2013-11-24 14:40:00,48.1,40.4,30.00,North,0,0.0,0.0,75,0.00,,,0.06,WUHU216HW,2013-11-24 21:40:00,
2013-11-24 14:41:00,47.9,40.2,30.00,North,0,0.0,0.0,75,0.00,,,0.06,WUHU216HW,2013-11-24 21:41:00,
2013-11-24 14:42:00,48.1,40.4,30.00,North,0,0.0,0.0,75,0.00,,,0.06,WUHU216HW,2013-11-24 21:42:00,
2013-11-24 14:43:00,48.1,40.8,30.00,North,0,0.0,0.0,76,0.00,,,0.06,WUHU216HW,2013-11-24 21:43:00,
2013-11-24 14:44:00,48.1,40.8,30.00,North,0,0.0,0.0,76,0.00,,,0.06,WUHU216HW,2013-11-24 21:44:00,
2013-11-24 14:46:00,48.1,40.4,30.00,North,0,0.0,0.0,75,0.00,,,0.06,WUHU216HW,2013-11-24 21:46:00,
2013-11-24 14:48:00,48.1,40.4,30.00,North,0,0.0,0.0,75,0.00,,,0.06,WUHU216HW,2013-11-24 21:48:00,
2013-11-24 14:49:00,48.1,40.4,30.00,North,0,0.0,0.0,75,0.00,,,0.06,WUHU216HW,2013-11-24 21:49:00,
2013-11-24 14:51:00,48.2,40.6,30.00,North,0,0.0,0.0,75,0.00,,,0.06,WUHU216HW,2013-11-24 21:51:00,
2013-11-24 14:52:00,48.2,40.6,30.00,North,0,0.0,0.0,75,0.00,,,0.06,WUHU216HW,2013-11-24 21:52:00,
2013-11-24 14:55:00,48.2,40.6,30.00,North,0,0.0,0.0,75,0.00,,,0.06,WUHU216HW,2013-11-24 21:55:00,
2013-11-24 14:56:00,48.2,40.6,30.00,North,0,0.0,0.0,75,0.00,,,0.06,WUHU216HW,2013-11-24 21:56:00,
2013-11-24 14:57:00,48.2,40.6,30.00,North,0,0.0,0.0,75,0.00,,,0.06,WUHU216HW,2013-11-24 21:57:00,
2013-11-24 14:58:00,48.2,40.6,30.00,North,0,0.0,0.0,75,0.00,,,0.06,WUHU216HW,2013-11-24 21:58:00,
2013-11-24 15:00:00,48.2,40.6,30.00,North,0,0.0,0.0,75,0.00,,,0.06,WUHU216HW,2013-11-24 22:00:00,
2013-11-24 15:02:00,48.2,40.6,30.00,North,0,0.0,0.0,75,0.00,,,0.06,WUHU216HW,2013-11-24 22:02:00,
2013-11-24 15:03:00,48.4,40.8,30.00,North,0,0.0,0.0,75,0.00,,,0.06,WUHU216HW,2013-11-24 22:03:00,
2013-11-24 15:04:00,48.4,40.8,30.00,North,0,0.0,0.0,75,0.00,,,0.06,WUHU216HW,2013-11-24 22:04:00,
2013-11-24 15:07:00,48.6,41.0,30.00,North,0,0.0,0.0,75,0.00,,,0.06,WUHU216HW,2013-11-24 22:07:00,
2013-11-24 15:08:00,48.6,41.0,30.00,North,0,0.0,0.0,75,0.00,,,0.06,WUHU216HW,2013-11-24 22:08:00,
2013-11-24 15:09:00,48.6,40.6,30.00,North,0,0.0,0.0,74,0.00,,,0.06,WUHU216HW,2013-11-24 22:09:00,
2013-11-24 15:10:00,48.6,41.0,30.00,North,0,0.0,0.0,75,0.00,,,0.06,WUHU216HW,2013-11-24 22:10:00,
2013-11-24 15:11:00,48.6,41.0,30.00,North,0,0.0,0.0,75,0.00,,,0.06,WUHU216HW,2013-11-24 22:11:00,
2013-11-24 15:13:00,48.6,41.0,30.00,North,0,0.0,0.0,75,0.00,,,0.06,WUHU216HW,2013-11-24 22:13:00,
2013-11-24 15:14:00,48.6,41.0,30.00,North,0,0.0,0.0,75,0.00,,,0.06,WUHU216HW,2013-11-24 22:14:00,
2013-11-24 15:16:00,48.6,41.0,30.01,North,0,0.0,0.0,75,0.00,,,0.06,WUHU216HW,2013-11-24 22:16:00,
2013-11-24 15:17:00,48.6,41.0,30.01,North,0,0.0,0.0,75,0.00,,,0.06,WUHU216HW,2013-11-24 22:17:00,
2013-11-24 15:18:00,48.6,41.0,30.00,North,0,0.0,0.0,75,0.00,,,0.06,WUHU216HW,2013-11-24 22:18:00,
2013-11-24 15:19:00,48.6,41.0,30.00,North,0,0.0,0.0,75,0.00,,,0.06,WUHU216HW,2013-11-24 22:19:00,
2013-11-24 15:22:00,48.8,41.1,30.01,North,0,0.0,0.0,75,0.00,,,0.06,WUHU216HW,2013-11-24 22:22:00,
2013-11-24 15:23:00,48.8,41.1,30.01,North,0,0.0,0.0,75,0.00,,,0.06,WUHU216HW,2013-11-24 22:23:00,
2013-11-24 15:24:00,49.0,41.3,30.00,North,0,0.0,0.0,75,0.00,,,0.06,WUHU216HW,2013-11-24 22:24:00,
2013-11-24 15:25:00,49.0,41.3,30.00,North,0,0.0,0.0,75,0.00,,,0.06,WUHU216HW,2013-11-24 22:25:00,
2013-11-24 15:28:00,49.1,41.5,30.01,North,0,0.0,0.0,75,0.00,,,0.06,WUHU216HW,2013-11-24 22:28:00,
2013-11-24 15:29:00,49.1,41.5,30.01,North,0,0.0,0.0,75,0.00,,,0.06,WUHU216HW,2013-11-24 22:29:00,
2013-11-24 15:30:00,49.1,41.5,30.00,North,0,0.0,0.0,75,0.00,,,0.06,WUHU216HW,2013-11-24 22:30:00,
2013-11-24 15:32:00,49.1,41.1,30.00,North,0,0.0,0.0,74,0.00,,,0.06,WUHU216HW,2013-11-24 22:32:00,
2013-11-24 15:35:00,49.1,41.1,30.01,North,0,0.0,0.0,74,0.00,,,0.06,WUHU216HW,2013-11-24 22:35:00,
2013-11-24 15:36:00,49.1,41.1,30.01,North,0,0.0,0.0,74,0.00,,,0.06,WUHU216HW,2013-11-24 22:36:00,
2013-11-24 15:37:00,49.1,40.8,30.00,North,0,0.0,0.0,73,0.00,,,0.06,WUHU216HW,2013-11-24 22:37:00,
2013-11-24 15:40:00,49.0,40.6,30.01,North,0,0.0,0.0,73,0.00,,,0.06,WUHU216HW,2013-11-24 22:40:00,
2013-11-24 15:41:00,49.0,40.6,30.01,North,0,0.0,0.0,73,0.00,,,0.06,WUHU216HW,2013-11-24 22:41:00,
2013-11-24 15:42:00,49.0,40.6,30.01,North,0,0.0,0.0,73,0.00,,,0.06,WUHU216HW,2013-11-24 22:42:00,
2013-11-24 15:46:00,48.6,40.0,30.01,North,0,0.0,0.0,72,0.00,,,0.06,WUHU216HW,2013-11-24 22:46:00,
2013-11-24 15:47:00,48.6,40.2,30.01,North,0,0.0,0.0,73,0.00,,,0.06,WUHU216HW,2013-11-24 22:47:00,
2013-11-24 15:49:00,48.6,40.2,30.01,North,0,0.0,0.0,73,0.00,,,0.06,WUHU216HW,2013-11-24 22:49:00,
2013-11-24 15:51:00,48.4,40.1,30.01,North,0,0.0,0.0,73,0.00,,,0.06,WUHU216HW,2013-11-24 22:51:00,
2013-11-24 15:52:00,48.4,40.1,30.01,North,0,0.0,0.0,73,0.00,,,0.06,WUHU216HW,2013-11-24 22:52:00,
2013-11-24 15:53:00,48.2,39.9,30.01,North,0,0.0,0.0,73,0.00,,,0.06,WUHU216HW,2013-11-24 22:53:00,
2013-11-24 15:55:00,48.2,39.9,30.01,North,0,0.0,0.0,73,0.00,,,0.06,WUHU216HW,2013-11-24 22:55:00,
2013-11-24 15:56:00,48.2,39.9,30.01,North,0,0.0,0.0,73,0.00,,,0.06,WUHU216HW,2013-11-24 22:56:00,
2013-11-24 15:57:00,48.1,39.8,30.01,North,0,0.0,0.0,73,0.00,,,0.06,WUHU216HW,2013-11-24 22:57:00,
2013-11-24 15:59:00,48.2,40.2,30.01,North,0,0.0,0.0,74,0.00,,,0.06,WUHU216HW,2013-11-24 22:59:00,
2013-11-24 16:01:00,48.1,40.1,30.01,North,0,0.0,0.0,74,0.00,,,0.06,WUHU216HW,2013-11-24 23:01:00,
2013-11-24 16:02:00,48.1,40.1,30.01,North,0,0.0,0.0,74,0.00,,,0.06,WUHU216HW,2013-11-24 23:02:00,
2013-11-24 16:04:00,48.1,40.1,30.01,North,0,0.0,0.0,74,0.00,,,0.06,WUHU216HW,2013-11-24 23:04:00,
2013-11-24 16:06:00,48.1,39.8,30.01,North,0,0.0,0.0,73,0.00,,,0.06,WUHU216HW,2013-11-24 23:06:00,
2013-11-24 16:07:00,48.1,40.1,30.01,North,0,0.0,0.0,74,0.00,,,0.06,WUHU216HW,2013-11-24 23:07:00,
2013-11-24 16:08:00,48.1,40.1,30.01,North,0,0.0,0.0,74,0.00,,,0.06,WUHU216HW,2013-11-24 23:08:00,
2013-11-24 16:10:00,47.9,40.0,30.01,North,0,0.0,0.0,74,0.00,,,0.06,WUHU216HW,2013-11-24 23:10:00,
2013-11-24 16:11:00,47.9,40.0,30.01,North,0,0.0,0.0,74,0.00,,,0.06,WUHU216HW,2013-11-24 23:11:00,
2013-11-24 16:12:00,47.9,40.0,30.01,North,0,0.0,0.0,74,0.00,,,0.06,WUHU216HW,2013-11-24 23:12:00,
2013-11-24 16:13:00,48.1,40.1,30.01,North,0,0.0,0.0,74,0.00,,,0.06,WUHU216HW,2013-11-24 23:13:00,
2013-11-24 16:17:00,48.1,40.1,30.01,North,0,0.0,0.0,74,0.00,,,0.06,WUHU216HW,2013-11-24 23:17:00,
2013-11-24 16:18:00,48.1,40.1,30.01,North,0,0.0,0.0,74,0.00,,,0.06,WUHU216HW,2013-11-24 23:18:00,
2013-11-24 16:19:00,48.1,40.1,30.01,North,0,0.0,0.0,74,0.00,,,0.06,WUHU216HW,2013-11-24 23:19:00,
2013-11-24 16:22:00,48.1,40.1,30.01,North,0,0.0,0.0,74,0.00,,,0.06,WUHU216HW,2013-11-24 23:22:00,
2013-11-24 16:23:00,48.1,40.1,30.01,North,0,0.0,0.0,74,0.00,,,0.06,WUHU216HW,2013-11-24 23:23:00,
2013-11-24 16:24:00,48.1,40.1,30.01,North,0,0.0,0.0,74,0.00,,,0.06,WUHU216HW,2013-11-24 23:24:00,
2013-11-24 16:25:00,48.1,39.8,30.01,North,0,0.0,0.0,73,0.00,,,0.06,WUHU216HW,2013-11-24 23:25:00,
2013-11-24 16:27:00,47.9,40.0,30.01,North,0,0.0,0.0,74,0.00,,,0.06,WUHU216HW,2013-11-24 23:27:00,
2013-11-24 16:28:00,47.9,40.0,30.01,North,0,0.0,0.0,74,0.00,,,0.06,WUHU216HW,2013-11-24 23:28:00,
2013-11-24 16:29:00,47.9,40.0,30.01,North,0,0.0,0.0,74,0.00,,,0.06,WUHU216HW,2013-11-24 23:29:00,
2013-11-24 16:30:00,47.9,40.0,30.01,North,0,0.0,0.0,74,0.00,,,0.06,WUHU216HW,2013-11-24 23:30:00,
2013-11-24 16:33:00,47.9,40.0,30.01,North,0,0.0,0.0,74,0.00,,,0.06,WUHU216HW,2013-11-24 23:33:00,
2013-11-24 16:34:00,47.9,40.0,30.01,North,0,0.0,0.0,74,0.00,,,0.06,WUHU216HW,2013-11-24 23:34:00,
2013-11-24 16:35:00,47.9,40.0,30.01,North,0,0.0,0.0,74,0.00,,,0.06,WUHU216HW,2013-11-24 23:35:00,
2013-11-24 16:36:00,47.9,40.0,30.01,North,0,0.0,0.0,74,0.00,,,0.06,WUHU216HW,2013-11-24 23:36:00,
2013-11-24 16:39:00,47.9,40.0,30.01,North,0,0.0,0.0,74,0.00,,,0.06,WUHU216HW,2013-11-24 23:39:00,
2013-11-24 16:40:00,47.9,40.0,30.01,North,0,0.0,0.0,74,0.00,,,0.06,WUHU216HW,2013-11-24 23:40:00,
2013-11-24 16:41:00,47.9,40.0,30.01,North,0,0.0,0.0,74,0.00,,,0.06,WUHU216HW,2013-11-24 23:41:00,
2013-11-24 16:43:00,47.9,40.0,30.01,North,0,0.0,0.0,74,0.00,,,0.06,WUHU216HW,2013-11-24 23:43:00,
2013-11-24 16:44:00,47.7,39.8,30.01,North,0,0.0,0.0,74,0.00,,,0.06,WUHU216HW,2013-11-24 23:44:00,
2013-11-24 16:45:00,47.9,40.0,30.01,North,0,0.0,0.0,74,0.00,,,0.06,WUHU216HW,2013-11-24 23:45:00,
2013-11-24 16:46:00,47.9,40.0,30.01,North,0,0.0,0.0,74,0.00,,,0.06,WUHU216HW,2013-11-24 23:46:00,
2013-11-24 16:47:00,47.7,39.8,30.01,North,0,0.0,0.0,74,0.00,,,0.06,WUHU216HW,2013-11-24 23:47:00,
2013-11-24 16:48:00,47.7,39.8,30.01,North,0,0.0,0.0,74,0.00,,,0.06,WUHU216HW,2013-11-24 23:48:00,
2013-11-24 16:50:00,47.7,40.2,30.01,North,0,0.0,0.0,75,0.00,,,0.06,WUHU216HW,2013-11-24 23:50:00,
2013-11-24 16:51:00,47.7,40.2,30.01,North,0,0.0,0.0,75,0.00,,,0.06,WUHU216HW,2013-11-24 23:51:00,
2013-11-24 16:52:00,47.7,40.2,30.01,North,0,0.0,0.0,75,0.00,,,0.06,WUHU216HW,2013-11-24 23:52:00,
2013-11-24 16:53:00,47.7,40.2,30.01,North,0,0.0,0.0,75,0.00,,,0.06,WUHU216HW,2013-11-24 23:53:00,
2013-11-24 16:54:00,47.7,40.2,30.01,North,0,0.0,0.0,75,0.00,,,0.06,WUHU216HW,2013-11-24 23:54:00,
2013-11-24 16:56:00,47.7,40.2,30.01,North,0,0.0,0.0,75,0.00,,,0.06,WUHU216HW,2013-11-24 23:56:00,
2013-11-24 16:58:00,47.7,40.4,30.01,North,0,0.0,0.0,76,0.00,,,0.06,WUHU216HW,2013-11-24 23:58:00,
2013-11-24 16:59:00,47.7,40.4,30.01,North,0,0.0,0.0,76,0.00,,,0.06,WUHU216HW,2013-11-24 23:59:00,
2013-11-24 17:00:00,47.7,40.4,30.01,North,0,0.0,0.0,76,0.00,,,0.06,WUHU216HW,2013-11-25 00:00:00,
2013-11-24 17:01:00,47.7,40.4,30.01,North,0,0.0,0.0,76,0.00,,,0.06,WUHU216HW,2013-11-25 00:01:00,
2013-11-24 17:05:00,47.7,40.4,30.01,North,0,0.0,0.0,76,0.00,,,0.06,WUHU216HW,2013-11-25 00:05:00,
2013-11-24 17:06:00,47.7,40.4,30.01,North,0,0.0,0.0,76,0.00,,,0.06,WUHU216HW,2013-11-25 00:06:00,
2013-11-24 17:07:00,47.7,40.4,30.01,North,0,0.0,0.0,76,0.00,,,0.06,WUHU216HW,2013-11-25 00:07:00,
2013-11-24 17:10:00,47.7,40.8,30.01,North,0,0.0,0.0,77,0.00,,,0.06,WUHU216HW,2013-11-25 00:10:00,
2013-11-24 17:11:00,47.7,40.8,30.01,North,0,0.0,0.0,77,0.00,,,0.06,WUHU216HW,2013-11-25 00:11:00,
2013-11-24 17:13:00,47.7,40.8,30.01,North,0,0.0,0.0,77,0.00,,,0.06,WUHU216HW,2013-11-25 00:13:00,
2013-11-24 17:15:00,47.7,40.8,30.01,North,0,0.0,0.0,77,0.00,,,0.06,WUHU216HW,2013-11-25 00:15:00,
2013-11-24 17:16:00,47.7,40.8,30.01,North,0,0.0,0.0,77,0.00,,,0.06,WUHU216HW,2013-11-25 00:16:00,
2013-11-24 17:17:00,47.7,40.8,30.01,North,0,0.0,0.0,77,0.00,,,0.06,WUHU216HW,2013-11-25 00:17:00,
2013-11-24 17:18:00,47.7,40.8,30.01,North,0,0.0,0.0,77,0.00,,,0.06,WUHU216HW,2013-11-25 00:18:00,
2013-11-24 17:19:00,47.7,40.8,30.01,North,0,0.0,0.0,77,0.00,,,0.06,WUHU216HW,2013-11-25 00:19:00,
2013-11-24 17:21:00,47.7,41.1,30.01,North,0,0.0,0.0,78,0.00,,,0.06,WUHU216HW,2013-11-25 00:21:00,
2013-11-24 17:22:00,47.5,41.0,30.01,North,0,0.0,0.0,78,0.00,,,0.06,WUHU216HW,2013-11-25 00:22:00,
2013-11-24 17:23:00,47.5,41.0,30.01,North,0,0.0,0.0,78,0.00,,,0.06,WUHU216HW,2013-11-25 00:23:00,
2013-11-24 17:24:00,47.5,41.0,30.01,North,0,0.0,0.0,78,0.00,,,0.06,WUHU216HW,2013-11-25 00:24:00,
2013-11-24 17:27:00,47.5,41.0,30.01,North,0,0.0,0.0,78,0.00,,,0.06,WUHU216HW,2013-11-25 00:27:00,
2013-11-24 17:28:00,47.5,41.0,30.01,North,0,0.0,0.0,78,0.00,,,0.06,WUHU216HW,2013-11-25 00:28:00,
2013-11-24 17:29:00,47.5,41.0,30.01,North,0,0.0,0.0,78,0.00,,,0.06,WUHU216HW,2013-11-25 00:29:00,
2013-11-24 17:30:00,47.5,41.0,30.01,North,0,0.0,0.0,78,0.00,,,0.06,WUHU216HW,2013-11-25 00:30:00,
2013-11-24 17:32:00,47.3,40.8,30.01,North,0,0.0,0.0,78,0.00,,,0.06,WUHU216HW,2013-11-25 00:32:00,
2013-11-24 17:33:00,47.3,40.8,30.01,North,0,0.0,0.0,78,0.00,,,0.06,WUHU216HW,2013-11-25 00:33:00,
2013-11-24 17:34:00,47.3,40.8,30.01,North,0,0.0,0.0,78,0.00,,,0.06,WUHU216HW,2013-11-25 00:34:00,
2013-11-24 17:35:00,47.3,40.8,30.01,North,0,0.0,0.0,78,0.00,,,0.06,WUHU216HW,2013-11-25 00:35:00,
2013-11-24 17:36:00,47.3,40.8,30.01,North,0,0.0,0.0,78,0.00,,,0.06,WUHU216HW,2013-11-25 00:36:00,
2013-11-24 17:38:00,47.3,40.8,30.01,North,0,0.0,0.0,78,0.00,,,0.06,WUHU216HW,2013-11-25 00:38:00,
2013-11-24 17:39:00,47.3,40.8,30.01,North,0,0.0,0.0,78,0.00,,,0.06,WUHU216HW,2013-11-25 00:39:00,
2013-11-24 17:40:00,47.3,40.8,30.01,North,0,0.0,0.0,78,0.00,,,0.06,WUHU216HW,2013-11-25 00:40:00,
2013-11-24 17:41:00,47.2,40.7,30.01,North,0,0.0,0.0,78,0.00,,,0.06,WUHU216HW,2013-11-25 00:41:00,
2013-11-24 17:43:00,47.2,40.7,30.01,North,0,0.0,0.0,78,0.00,,,0.06,WUHU216HW,2013-11-25 00:43:00,
2013-11-24 17:44:00,47.2,40.7,30.01,North,0,0.0,0.0,78,0.00,,,0.06,WUHU216HW,2013-11-25 00:44:00,
2013-11-24 17:45:00,47.2,40.7,30.01,North,0,0.0,0.0,78,0.00,,,0.06,WUHU216HW,2013-11-25 00:45:00,
2013-11-24 17:46:00,47.2,40.7,30.01,North,0,0.0,0.0,78,0.00,,,0.06,WUHU216HW,2013-11-25 00:46:00,
2013-11-24 17:49:00,47.0,40.1,30.01,North,0,0.0,0.0,77,0.00,,,0.06,WUHU216HW,2013-11-25 00:49:00,
2013-11-24 17:50:00,46.8,40.0,30.01,North,0,0.0,0.0,77,0.00,,,0.06,WUHU216HW,2013-11-25 00:50:00,
2013-11-24 17:51:00,46.8,40.0,30.01,North,0,0.0,0.0,77,0.00,,,0.06,WUHU216HW,2013-11-25 00:51:00,
2013-11-24 17:52:00,46.6,39.8,30.01,North,0,0.0,0.0,77,0.00,,,0.06,WUHU216HW,2013-11-25 00:52:00,
2013-11-24 17:55:00,46.4,40.0,30.01,North,0,0.0,0.0,78,0.00,,,0.06,WUHU216HW,2013-11-25 00:55:00,
2013-11-24 17:56:00,46.4,40.0,30.01,North,0,0.0,0.0,78,0.00,,,0.06,WUHU216HW,2013-11-25 00:56:00,
2013-11-24 17:57:00,46.4,40.0,30.01,North,0,0.0,0.0,78,0.00,,,0.06,WUHU216HW,2013-11-25 00:57:00,
2013-11-24 17:58:00,46.3,39.8,30.01,North,0,0.0,0.0,78,0.00,,,0.06,WUHU216HW,2013-11-25 00:58:00,
2013-11-24 18:00:00,46.3,39.8,30.01,North,0,0.0,0.0,78,0.00,,,0.06,WUHU216HW,2013-11-25 01:00:00,
2013-11-24 18:02:00,46.3,39.8,30.01,North,0,0.0,0.0,78,0.00,,,0.06,WUHU216HW,2013-11-25 01:02:00,
2013-11-24 18:03:00,46.1,39.6,30.01,North,0,0.0,0.0,78,0.00,,,0.06,WUHU216HW,2013-11-25 01:03:00,
2013-11-24 18:04:00,46.1,39.6,30.01,North,0,0.0,0.0,78,0.00,,,0.06,WUHU216HW,2013-11-25 01:04:00,
2013-11-24 18:06:00,46.1,39.6,30.01,North,0,0.0,0.0,78,0.00,,,0.06,WUHU216HW,2013-11-25 01:06:00,
2013-11-24 18:07:00,46.1,39.6,30.01,North,0,0.0,0.0,78,0.00,,,0.06,WUHU216HW,2013-11-25 01:07:00,
2013-11-24 18:08:00,46.1,39.6,30.01,North,0,0.0,0.0,78,0.00,,,0.06,WUHU216HW,2013-11-25 01:08:00,
2013-11-24 18:10:00,46.1,39.6,30.02,North,0,0.0,0.0,78,0.00,,,0.06,WUHU216HW,2013-11-25 01:10:00,
2013-11-24 18:11:00,46.1,39.6,30.02,North,0,0.0,0.0,78,0.00,,,0.06,WUHU216HW,2013-11-25 01:11:00,
2013-11-24 18:12:00,46.1,39.6,30.02,North,0,0.0,0.0,78,0.00,,,0.06,WUHU216HW,2013-11-25 01:12:00,
2013-11-24 18:13:00,46.1,39.6,30.02,North,0,0.0,0.0,78,0.00,,,0.06,WUHU216HW,2013-11-25 01:13:00,
2013-11-24 18:15:00,45.9,39.8,30.02,North,0,0.0,0.0,79,0.00,,,0.06,WUHU216HW,2013-11-25 01:15:00,
2013-11-24 18:16:00,45.9,39.8,30.02,North,0,0.0,0.0,79,0.00,,,0.06,WUHU216HW,2013-11-25 01:16:00,
2013-11-24 18:17:00,45.9,39.8,30.02,North,0,0.0,0.0,79,0.00,,,0.06,WUHU216HW,2013-11-25 01:17:00,
2013-11-24 18:18:00,45.9,39.4,30.02,North,0,0.0,0.0,78,0.00,,,0.06,WUHU216HW,2013-11-25 01:18:00,
2013-11-24 18:21:00,45.7,39.2,30.02,North,0,0.0,0.0,78,0.00,,,0.06,WUHU216HW,2013-11-25 01:21:00,
2013-11-24 18:22:00,45.7,39.2,30.02,North,0,0.0,0.0,78,0.00,,,0.06,WUHU216HW,2013-11-25 01:22:00,
2013-11-24 18:23:00,45.7,39.2,30.02,North,0,0.0,0.0,78,0.00,,,0.06,WUHU216HW,2013-11-25 01:23:00,
2013-11-24 18:26:00,45.7,39.2,30.02,North,0,0.0,0.0,78,0.00,,,0.06,WUHU216HW,2013-11-25 01:26:00,
2013-11-24 18:27:00,45.7,39.2,30.02,North,0,0.0,0.0,78,0.00,,,0.06,WUHU216HW,2013-11-25 01:27:00,
2013-11-24 18:28:00,45.5,39.1,30.02,North,0,0.0,0.0,78,0.00,,,0.06,WUHU216HW,2013-11-25 01:28:00,
2013-11-24 18:29:00,45.5,39.1,30.02,North,0,0.0,0.0,78,0.00,,,0.06,WUHU216HW,2013-11-25 01:29:00,
2013-11-24 18:31:00,45.4,38.9,30.02,North,0,0.0,0.0,78,0.00,,,0.06,WUHU216HW,2013-11-25 01:31:00,
2013-11-24 18:32:00,45.4,39.2,30.02,North,0,0.0,0.0,79,0.00,,,0.06,WUHU216HW,2013-11-25 01:32:00,
2013-11-24 18:34:00,45.4,39.2,30.02,North,0,0.0,0.0,79,0.00,,,0.06,WUHU216HW,2013-11-25 01:34:00,
2013-11-24 18:35:00,45.4,39.2,30.02,North,0,0.0,0.0,79,0.00,,,0.06,WUHU216HW,2013-11-25 01:35:00,
2013-11-24 18:36:00,45.4,39.2,30.02,North,0,0.0,0.0,79,0.00,,,0.06,WUHU216HW,2013-11-25 01:36:00,
2013-11-24 18:37:00,45.2,39.1,30.02,North,0,0.0,0.0,79,0.00,,,0.06,WUHU216HW,2013-11-25 01:37:00,
2013-11-24 18:40:00,45.2,39.1,30.02,North,0,0.0,0.0,79,0.00,,,0.06,WUHU216HW,2013-11-25 01:40:00,
2013-11-24 18:41:00,45.2,39.1,30.02,North,0,0.0,0.0,79,0.00,,,0.06,WUHU216HW,2013-11-25 01:41:00,
2013-11-24 18:42:00,45.2,39.1,30.02,North,0,0.0,0.0,79,0.00,,,0.06,WUHU216HW,2013-11-25 01:42:00,
2013-11-24 18:43:00,45.2,39.1,30.02,North,0,0.0,0.0,79,0.00,,,0.06,WUHU216HW,2013-11-25 01:43:00,
2013-11-24 18:45:00,45.0,38.9,30.02,North,0,0.0,0.0,79,0.00,,,0.06,WUHU216HW,2013-11-25 01:45:00,
2013-11-24 18:47:00,45.0,38.9,30.03,North,0,0.0,0.0,79,0.00,,,0.06,WUHU216HW,2013-11-25 01:47:00,
2013-11-24 18:48:00,45.0,38.9,30.02,North,0,0.0,0.0,79,0.00,,,0.06,WUHU216HW,2013-11-25 01:48:00,
2013-11-24 18:50:00,44.8,38.7,30.02,North,0,0.0,0.0,79,0.00,,,0.06,WUHU216HW,2013-11-25 01:50:00,
2013-11-24 18:51:00,44.8,38.7,30.02,North,0,0.0,0.0,79,0.00,,,0.06,WUHU216HW,2013-11-25 01:51:00,
2013-11-24 18:52:00,44.8,38.7,30.02,North,0,0.0,0.0,79,0.00,,,0.06,WUHU216HW,2013-11-25 01:52:00,
2013-11-24 18:53:00,44.6,38.5,30.02,North,0,0.0,0.0,79,0.00,,,0.06,WUHU216HW,2013-11-25 01:53:00,
2013-11-24 18:54:00,44.6,38.5,30.02,North,0,0.0,0.0,79,0.00,,,0.06,WUHU216HW,2013-11-25 01:54:00,
2013-11-24 18:55:00,44.6,38.5,30.02,North,0,0.0,0.0,79,0.00,,,0.06,WUHU216HW,2013-11-25 01:55:00,
2013-11-24 18:57:00,44.6,38.5,30.02,North,0,0.0,0.0,79,0.00,,,0.06,WUHU216HW,2013-11-25 01:57:00,
2013-11-24 18:58:00,44.6,38.5,30.02,North,0,0.0,0.0,79,0.00,,,0.06,WUHU216HW,2013-11-25 01:58:00,
2013-11-24 18:59:00,44.5,38.3,30.02,North,0,0.0,0.0,79,0.00,,,0.06,WUHU216HW,2013-11-25 01:59:00,
2013-11-24 19:01:00,44.5,38.3,30.03,North,0,0.0,0.0,79,0.00,,,0.06,WUHU216HW,2013-11-25 02:01:00,
2013-11-24 19:02:00,44.3,38.2,30.02,North,0,0.0,0.0,79,0.00,,,0.06,WUHU216HW,2013-11-25 02:02:00,
2013-11-24 19:04:00,44.3,38.2,30.02,North,0,0.0,0.0,79,0.00,,,0.06,WUHU216HW,2013-11-25 02:04:00,
2013-11-24 19:06:00,44.3,38.2,30.02,North,0,0.0,0.0,79,0.00,,,0.06,WUHU216HW,2013-11-25 02:06:00,
2013-11-24 19:07:00,44.3,38.2,30.02,North,0,0.0,0.0,79,0.00,,,0.06,WUHU216HW,2013-11-25 02:07:00,
2013-11-24 19:08:00,44.3,38.2,30.02,North,0,0.0,0.0,79,0.00,,,0.06,WUHU216HW,2013-11-25 02:08:00,
2013-11-24 19:09:00,44.3,38.2,30.02,North,0,0.0,0.0,79,0.00,,,0.06,WUHU216HW,2013-11-25 02:09:00,
2013-11-24 19:12:00,44.3,38.2,30.03,North,0,0.0,0.0,79,0.00,,,0.06,WUHU216HW,2013-11-25 02:12:00,
2013-11-24 19:13:00,44.3,38.2,30.02,North,0,0.0,0.0,79,0.00,,,0.06,WUHU216HW,2013-11-25 02:13:00,
2013-11-24 19:14:00,44.3,38.2,30.02,North,0,0.0,0.0,79,0.00,,,0.06,WUHU216HW,2013-11-25 02:14:00,
2013-11-24 19:18:00,44.1,38.0,30.02,North,0,0.0,0.0,79,0.00,,,0.06,WUHU216HW,2013-11-25 02:18:00,
2013-11-24 19:19:00,43.9,37.8,30.03,North,0,0.0,0.0,79,0.00,,,0.06,WUHU216HW,2013-11-25 02:19:00,
2013-11-24 19:20:00,43.9,37.8,30.03,North,0,0.0,0.0,79,0.00,,,0.06,WUHU216HW,2013-11-25 02:20:00,
2013-11-24 19:22:00,43.9,37.8,30.03,North,0,0.0,0.0,79,0.00,,,0.06,WUHU216HW,2013-11-25 02:22:00,
2013-11-24 19:23:00,43.9,37.8,30.03,North,0,0.0,0.0,79,0.00,,,0.06,WUHU216HW,2013-11-25 02:23:00,
2013-11-24 19:24:00,43.9,37.8,30.03,North,0,0.0,0.0,79,0.00,,,0.06,WUHU216HW,2013-11-25 02:24:00,
2013-11-24 19:27:00,43.9,37.8,30.03,North,0,0.0,0.0,79,0.00,,,0.06,WUHU216HW,2013-11-25 02:27:00,
2013-11-24 19:28:00,43.9,37.8,30.03,North,0,0.0,0.0,79,0.00,,,0.06,WUHU216HW,2013-11-25 02:28:00,
2013-11-24 19:29:00,43.9,37.8,30.03,North,0,0.0,0.0,79,0.00,,,0.06,WUHU216HW,2013-11-25 02:29:00,
2013-11-24 19:30:00,43.9,37.8,30.03,North,0,0.0,0.0,79,0.00,,,0.06,WUHU216HW,2013-11-25 02:30:00,
2013-11-24 19:34:00,43.6,37.4,30.03,North,0,0.0,0.0,79,0.00,,,0.06,WUHU216HW,2013-11-25 02:34:00,
2013-11-24 19:35:00,43.6,37.4,30.03,North,0,0.0,0.0,79,0.00,,,0.06,WUHU216HW,2013-11-25 02:35:00,
2013-11-24 19:36:00,43.6,37.4,30.03,North,0,0.0,0.0,79,0.00,,,0.06,WUHU216HW,2013-11-25 02:36:00,
2013-11-24 19:38:00,43.4,37.3,30.03,North,0,0.0,0.0,79,0.00,,,0.06,WUHU216HW,2013-11-25 02:38:00,
2013-11-24 19:39:00,43.2,37.1,30.03,North,0,0.0,0.0,79,0.00,,,0.06,WUHU216HW,2013-11-25 02:39:00,
2013-11-24 19:41:00,43.2,37.4,30.03,North,0,0.0,0.0,80,0.00,,,0.06,WUHU216HW,2013-11-25 02:41:00,
2013-11-24 19:44:00,43.2,37.4,30.03,North,0,0.0,0.0,80,0.00,,,0.06,WUHU216HW,2013-11-25 02:44:00,
2013-11-24 19:46:00,42.8,37.1,30.03,North,0,0.0,0.0,80,0.00,,,0.06,WUHU216HW,2013-11-25 02:46:00,
2013-11-24 19:47:00,42.8,37.1,30.03,North,0,0.0,0.0,80,0.00,,,0.06,WUHU216HW,2013-11-25 02:47:00,
2013-11-24 19:49:00,42.8,37.1,30.03,North,0,0.0,0.0,80,0.00,,,0.06,WUHU216HW,2013-11-25 02:49:00,
2013-11-24 19:50:00,42.8,37.1,30.03,North,0,0.0,0.0,80,0.00,,,0.06,WUHU216HW,2013-11-25 02:50:00,
2013-11-24 19:52:00,42.7,37.2,30.03,North,0,0.0,0.0,81,0.00,,,0.06,WUHU216HW,2013-11-25 02:52:00,
2013-11-24 19:53:00,42.7,37.2,30.03,North,0,0.0,0.0,81,0.00,,,0.06,WUHU216HW,2013-11-25 02:53:00,
2013-11-24 19:55:00,42.7,37.2,30.03,North,0,0.0,0.0,81,0.00,,,0.06,WUHU216HW,2013-11-25 02:55:00,
2013-11-24 19:57:00,42.5,37.0,30.03,North,0,0.0,0.0,81,0.00,,,0.06,WUHU216HW,2013-11-25 02:57:00,
2013-11-24 19:58:00,42.5,37.0,30.03,North,0,0.0,0.0,81,0.00,,,0.06,WUHU216HW,2013-11-25 02:58:00,
2013-11-24 20:01:00,42.5,37.0,30.03,North,0,0.0,0.0,81,0.00,,,0.06,WUHU216HW,2013-11-25 03:01:00,
2013-11-24 20:02:00,42.5,37.0,30.03,North,0,0.0,0.0,81,0.00,,,0.06,WUHU216HW,2013-11-25 03:02:00,
2013-11-24 20:03:00,42.5,37.0,30.04,North,0,0.0,0.0,81,0.00,,,0.06,WUHU216HW,2013-11-25 03:03:00,
2013-11-24 20:04:00,42.5,37.0,30.03,North,0,0.0,0.0,81,0.00,,,0.06,WUHU216HW,2013-11-25 03:04:00,
2013-11-24 20:07:00,42.5,37.0,30.04,North,0,0.0,0.0,81,0.00,,,0.06,WUHU216HW,2013-11-25 03:07:00,
2013-11-24 20:08:00,42.5,37.0,30.04,North,0,0.0,0.0,81,0.00,,,0.06,WUHU216HW,2013-11-25 03:08:00,
2013-11-24 20:09:00,42.3,36.8,30.04,North,0,0.0,0.0,81,0.00,,,0.06,WUHU216HW,2013-11-25 03:09:00,
2013-11-24 20:10:00,42.3,36.8,30.04,North,0,0.0,0.0,81,0.00,,,0.06,WUHU216HW,2013-11-25 03:10:00,
2013-11-24 20:13:00,42.1,36.6,30.04,North,0,0.0,0.0,81,0.00,,,0.06,WUHU216HW,2013-11-25 03:13:00,
2013-11-24 20:14:00,42.1,36.6,30.04,North,0,0.0,0.0,81,0.00,,,0.06,WUHU216HW,2013-11-25 03:14:00,
2013-11-24 20:15:00,42.1,36.6,30.04,North,0,0.0,0.0,81,0.00,,,0.06,WUHU216HW,2013-11-25 03:15:00,
2013-11-24 20:19:00,41.9,36.5,30.04,North,0,0.0,0.0,81,0.00,,,0.06,WUHU216HW,2013-11-25 03:19:00,
2013-11-24 20:20:00,41.8,36.3,30.04,North,0,0.0,0.0,81,0.00,,,0.06,WUHU216HW,2013-11-25 03:20:00,
2013-11-24 20:21:00,41.8,36.3,30.04,North,0,0.0,0.0,81,0.00,,,0.06,WUHU216HW,2013-11-25 03:21:00,
2013-11-24 20:23:00,41.8,36.3,30.04,North,0,0.0,0.0,81,0.00,,,0.06,WUHU216HW,2013-11-25 03:23:00,
2013-11-24 20:24:00,41.8,36.3,30.04,North,0,0.0,0.0,81,0.00,,,0.06,WUHU216HW,2013-11-25 03:24:00,
2013-11-24 20:25:00,41.8,36.3,30.04,North,0,0.0,0.0,81,0.00,,,0.06,WUHU216HW,2013-11-25 03:25:00,
2013-11-24 20:26:00,41.8,36.3,30.04,North,0,0.0,0.0,81,0.00,,,0.06,WUHU216HW,2013-11-25 03:26:00,
2013-11-24 20:28:00,41.8,36.6,30.04,North,0,0.0,0.0,82,0.00,,,0.06,WUHU216HW,2013-11-25 03:28:00,
2013-11-24 20:30:00,41.6,36.5,30.04,North,0,0.0,0.0,82,0.00,,,0.06,WUHU216HW,2013-11-25 03:30:00,
2013-11-24 20:31:00,41.6,36.5,30.04,North,0,0.0,0.0,82,0.00,,,0.06,WUHU216HW,2013-11-25 03:31:00,
2013-11-24 20:34:00,41.4,36.3,30.04,North,0,0.0,0.0,82,0.00,,,0.06,WUHU216HW,2013-11-25 03:34:00,
2013-11-24 20:36:00,41.4,36.3,30.04,North,0,0.0,0.0,82,0.00,,,0.06,WUHU216HW,2013-11-25 03:36:00,
2013-11-24 20:39:00,41.4,36.3,30.04,North,0,0.0,0.0,82,0.00,,,0.06,WUHU216HW,2013-11-25 03:39:00,
2013-11-24 20:40:00,41.4,36.3,30.04,North,0,0.0,0.0,82,0.00,,,0.06,WUHU216HW,2013-11-25 03:40:00,
2013-11-24 20:41:00,41.4,36.3,30.04,North,0,0.0,0.0,82,0.00,,,0.06,WUHU216HW,2013-11-25 03:41:00,
2013-11-24 20:43:00,41.4,36.5,30.04,North,0,0.0,0.0,83,0.00,,,0.06,WUHU216HW,2013-11-25 03:43:00,
2013-11-24 20:45:00,41.4,36.5,30.04,North,0,0.0,0.0,83,0.00,,,0.06,WUHU216HW,2013-11-25 03:45:00,
2013-11-24 20:46:00,41.4,36.5,30.04,North,0,0.0,0.0,83,0.00,,,0.06,WUHU216HW,2013-11-25 03:46:00,
2013-11-24 20:47:00,41.4,36.5,30.04,North,0,0.0,0.0,83,0.00,,,0.06,WUHU216HW,2013-11-25 03:47:00,
2013-11-24 20:49:00,41.4,36.3,30.04,North,0,0.0,0.0,82,0.00,,,0.06,WUHU216HW,2013-11-25 03:49:00,
2013-11-24 20:52:00,41.4,36.3,30.04,North,0,0.0,0.0,82,0.00,,,0.06,WUHU216HW,2013-11-25 03:52:00,
2013-11-24 20:53:00,41.4,36.3,30.04,North,0,0.0,0.0,82,0.00,,,0.06,WUHU216HW,2013-11-25 03:53:00,
2013-11-24 20:55:00,41.4,36.3,30.04,North,0,0.0,0.0,82,0.00,,,0.06,WUHU216HW,2013-11-25 03:55:00,
2013-11-24 20:57:00,41.2,36.1,30.04,North,0,0.0,0.0,82,0.00,,,0.06,WUHU216HW,2013-11-25 03:57:00,
2013-11-24 20:58:00,41.2,36.1,30.04,North,0,0.0,0.0,82,0.00,,,0.06,WUHU216HW,2013-11-25 03:58:00,
2013-11-24 20:59:00,41.2,36.1,30.04,North,0,0.0,0.0,82,0.00,,,0.06,WUHU216HW,2013-11-25 03:59:00,
2013-11-24 21:00:00,41.2,36.1,30.04,North,0,0.0,0.0,82,0.00,,,0.06,WUHU216HW,2013-11-25 04:00:00,
2013-11-24 21:01:00,41.2,36.1,30.04,North,0,0.0,0.0,82,0.00,,,0.06,WUHU216HW,2013-11-25 04:01:00,
2013-11-24 21:03:00,41.0,35.9,30.04,North,0,0.0,0.0,82,0.00,,,0.06,WUHU216HW,2013-11-25 04:03:00,
2013-11-24 21:05:00,41.0,35.9,30.04,North,0,0.0,0.0,82,0.00,,,0.06,WUHU216HW,2013-11-25 04:05:00,
2013-11-24 21:06:00,41.0,35.9,30.04,North,0,0.0,0.0,82,0.00,,,0.06,WUHU216HW,2013-11-25 04:06:00,
2013-11-24 21:08:00,41.0,35.9,30.04,North,0,0.0,0.0,82,0.00,,,0.06,WUHU216HW,2013-11-25 04:08:00,
2013-11-24 21:09:00,41.0,35.9,30.04,North,0,0.0,0.0,82,0.00,,,0.06,WUHU216HW,2013-11-25 04:09:00,
2013-11-24 21:10:00,41.0,35.9,30.04,North,0,0.0,0.0,82,0.00,,,0.06,WUHU216HW,2013-11-25 04:10:00,
2013-11-24 21:11:00,41.0,35.9,30.04,North,0,0.0,0.0,82,0.00,,,0.06,WUHU216HW,2013-11-25 04:11:00,
2013-11-24 21:12:00,41.0,35.9,30.04,North,0,0.0,0.0,82,0.00,,,0.06,WUHU216HW,2013-11-25 04:12:00,
2013-11-24 21:13:00,41.0,35.9,30.04,North,0,0.0,0.0,82,0.00,,,0.06,WUHU216HW,2013-11-25 04:13:00,
2013-11-24 21:15:00,41.0,35.9,30.04,North,0,0.0,0.0,82,0.00,,,0.06,WUHU216HW,2013-11-25 04:15:00,
2013-11-24 21:17:00,41.0,35.9,30.04,North,0,0.0,0.0,82,0.00,,,0.06,WUHU216HW,2013-11-25 04:17:00,
2013-11-24 21:19:00,41.0,35.9,30.04,North,0,0.0,0.0,82,0.00,,,0.06,WUHU216HW,2013-11-25 04:19:00,
2013-11-24 21:20:00,41.0,35.9,30.04,North,0,0.0,0.0,82,0.00,,,0.06,WUHU216HW,2013-11-25 04:20:00,
2013-11-24 21:22:00,41.0,35.9,30.04,North,0,0.0,0.0,82,0.00,,,0.06,WUHU216HW,2013-11-25 04:22:00,
2013-11-24 21:23:00,41.0,35.9,30.05,North,0,0.0,0.0,82,0.00,,,0.06,WUHU216HW,2013-11-25 04:23:00,
2013-11-24 21:25:00,41.0,35.9,30.04,North,0,0.0,0.0,82,0.00,,,0.06,WUHU216HW,2013-11-25 04:25:00,
2013-11-24 21:27:00,40.9,35.7,30.05,North,0,0.0,0.0,82,0.00,,,0.06,WUHU216HW,2013-11-25 04:27:00,
2013-11-24 21:28:00,40.9,35.7,30.05,North,0,0.0,0.0,82,0.00,,,0.06,WUHU216HW,2013-11-25 04:28:00,
2013-11-24 21:30:00,40.9,35.7,30.05,North,0,0.0,0.0,82,0.00,,,0.06,WUHU216HW,2013-11-25 04:30:00,
2013-11-24 21:32:00,40.9,35.7,30.05,North,0,0.0,0.0,82,0.00,,,0.06,WUHU216HW,2013-11-25 04:32:00,
2013-11-24 21:33:00,40.9,35.7,30.04,North,0,0.0,0.0,82,0.00,,,0.06,WUHU216HW,2013-11-25 04:33:00,
2013-11-24 21:34:00,40.9,35.7,30.05,North,0,0.0,0.0,82,0.00,,,0.06,WUHU216HW,2013-11-25 04:34:00,
2013-11-24 21:36:00,40.9,35.7,30.05,North,0,0.0,0.0,82,0.00,,,0.06,WUHU216HW,2013-11-25 04:36:00,
2013-11-24 21:37:00,40.9,35.7,30.05,North,0,0.0,0.0,82,0.00,,,0.06,WUHU216HW,2013-11-25 04:37:00,
2013-11-24 21:38:00,40.9,35.7,30.05,North,0,0.0,0.0,82,0.00,,,0.06,WUHU216HW,2013-11-25 04:38:00,
2013-11-24 21:39:00,40.9,35.7,30.05,North,0,0.0,0.0,82,0.00,,,0.06,WUHU216HW,2013-11-25 04:39:00,
2013-11-24 21:41:00,40.9,35.7,30.05,North,0,0.0,0.0,82,0.00,,,0.06,WUHU216HW,2013-11-25 04:41:00,
2013-11-24 21:44:00,40.9,35.7,30.05,North,0,0.0,0.0,82,0.00,,,0.06,WUHU216HW,2013-11-25 04:44:00,
2013-11-24 21:45:00,40.9,35.7,30.05,North,0,0.0,0.0,82,0.00,,,0.06,WUHU216HW,2013-11-25 04:45:00,
2013-11-24 21:46:00,40.9,35.7,30.05,North,0,0.0,0.0,82,0.00,,,0.06,WUHU216HW,2013-11-25 04:46:00,
2013-11-24 21:48:00,40.9,35.7,30.05,North,0,0.0,0.0,82,0.00,,,0.06,WUHU216HW,2013-11-25 04:48:00,
2013-11-24 21:49:00,40.7,35.6,30.05,North,0,0.0,0.0,82,0.00,,,0.06,WUHU216HW,2013-11-25 04:49:00,
2013-11-24 21:50:00,40.7,35.6,30.05,North,0,0.0,0.0,82,0.00,,,0.06,WUHU216HW,2013-11-25 04:50:00,
2013-11-24 21:51:00,40.7,35.6,30.05,North,0,0.0,0.0,82,0.00,,,0.06,WUHU216HW,2013-11-25 04:51:00,
2013-11-24 21:52:00,40.7,35.6,30.05,North,0,0.0,0.0,82,0.00,,,0.06,WUHU216HW,2013-11-25 04:52:00,
2013-11-24 21:53:00,40.7,35.6,30.05,North,0,0.0,0.0,82,0.00,,,0.06,WUHU216HW,2013-11-25 04:53:00,
2013-11-24 21:54:00,40.7,35.6,30.05,North,0,0.0,0.0,82,0.00,,,0.06,WUHU216HW,2013-11-25 04:54:00,
2013-11-24 21:55:00,40.7,35.6,30.05,North,0,0.0,0.0,82,0.00,,,0.06,WUHU216HW,2013-11-25 04:55:00,
2013-11-24 21:56:00,40.7,35.6,30.05,North,0,0.0,0.0,82,0.00,,,0.06,WUHU216HW,2013-11-25 04:56:00,
2013-11-24 21:58:00,40.7,35.6,30.05,North,0,0.0,0.0,82,0.00,,,0.06,WUHU216HW,2013-11-25 04:58:00,
2013-11-24 22:00:00,40.5,35.4,30.05,North,0,0.0,0.0,82,0.00,,,0.06,WUHU216HW,2013-11-25 05:00:00,
2013-11-24 22:01:00,40.5,35.4,30.05,North,0,0.0,0.0,82,0.00,,,0.06,WUHU216HW,2013-11-25 05:01:00,
2013-11-24 22:02:00,40.5,35.4,30.05,North,0,0.0,0.0,82,0.00,,,0.06,WUHU216HW,2013-11-25 05:02:00,
2013-11-24 22:03:00,40.3,35.2,30.05,North,0,0.0,0.0,82,0.00,,,0.06,WUHU216HW,2013-11-25 05:03:00,
2013-11-24 22:07:00,40.3,35.2,30.05,North,0,0.0,0.0,82,0.00,,,0.06,WUHU216HW,2013-11-25 05:07:00,
2013-11-24 22:08:00,40.3,35.2,30.05,North,0,0.0,0.0,82,0.00,,,0.06,WUHU216HW,2013-11-25 05:08:00,
2013-11-24 22:09:00,40.3,35.2,30.05,North,0,0.0,0.0,82,0.00,,,0.06,WUHU216HW,2013-11-25 05:09:00,
2013-11-24 22:12:00,40.3,35.2,30.05,North,0,0.0,0.0,82,0.00,,,0.06,WUHU216HW,2013-11-25 05:12:00,
2013-11-24 22:13:00,40.1,35.1,30.05,North,0,0.0,0.0,82,0.00,,,0.06,WUHU216HW,2013-11-25 05:13:00,
2013-11-24 22:14:00,40.1,35.4,30.05,North,0,0.0,0.0,83,0.00,,,0.06,WUHU216HW,2013-11-25 05:14:00,
2013-11-24 22:16:00,40.1,35.1,30.05,North,0,0.0,0.0,82,0.00,,,0.06,WUHU216HW,2013-11-25 05:16:00,
2013-11-24 22:18:00,40.1,35.4,30.05,North,0,0.0,0.0,83,0.00,,,0.06,WUHU216HW,2013-11-25 05:18:00,
2013-11-24 22:19:00,40.1,35.4,30.05,North,0,0.0,0.0,83,0.00,,,0.06,WUHU216HW,2013-11-25 05:19:00,
2013-11-24 22:20:00,40.1,35.4,30.05,North,0,0.0,0.0,83,0.00,,,0.06,WUHU216HW,2013-11-25 05:20:00,
2013-11-24 22:22:00,40.1,35.4,30.05,North,0,0.0,0.0,83,0.00,,,0.06,WUHU216HW,2013-11-25 05:22:00,
2013-11-24 22:24:00,40.1,35.4,30.05,North,0,0.0,0.0,83,0.00,,,0.06,WUHU216HW,2013-11-25 05:24:00,
2013-11-24 22:25:00,40.1,35.4,30.05,North,0,0.0,0.0,83,0.00,,,0.06,WUHU216HW,2013-11-25 05:25:00,
2013-11-24 22:26:00,40.1,35.4,30.05,North,0,0.0,0.0,83,0.00,,,0.06,WUHU216HW,2013-11-25 05:26:00,
2013-11-24 22:29:00,40.0,35.2,30.05,North,0,0.0,0.0,83,0.00,,,0.06,WUHU216HW,2013-11-25 05:29:00,
2013-11-24 22:30:00,40.0,35.2,30.05,North,0,0.0,0.0,83,0.00,,,0.06,WUHU216HW,2013-11-25 05:30:00,
2013-11-24 22:31:00,40.0,35.2,30.05,North,0,0.0,0.0,83,0.00,,,0.06,WUHU216HW,2013-11-25 05:31:00,
2013-11-24 22:32:00,40.0,35.2,30.05,North,0,0.0,0.0,83,0.00,,,0.06,WUHU216HW,2013-11-25 05:32:00,
2013-11-24 22:35:00,40.0,35.2,30.06,North,0,0.0,0.0,83,0.00,,,0.06,WUHU216HW,2013-11-25 05:35:00,
2013-11-24 22:36:00,39.8,35.0,30.06,North,0,0.0,0.0,83,0.00,,,0.06,WUHU216HW,2013-11-25 05:36:00,
2013-11-24 22:37:00,39.8,35.0,30.06,North,0,0.0,0.0,83,0.00,,,0.06,WUHU216HW,2013-11-25 05:37:00,
2013-11-24 22:38:00,39.8,35.0,30.06,North,0,0.0,0.0,83,0.00,,,0.06,WUHU216HW,2013-11-25 05:38:00,
2013-11-24 22:40:00,39.8,35.0,30.06,North,0,0.0,0.0,83,0.00,,,0.06,WUHU216HW,2013-11-25 05:40:00,
2013-11-24 22:41:00,39.6,34.8,30.06,North,0,0.0,0.0,83,0.00,,,0.06,WUHU216HW,2013-11-25 05:41:00,
2013-11-24 22:42:00,39.6,34.8,30.06,North,0,0.0,0.0,83,0.00,,,0.06,WUHU216HW,2013-11-25 05:42:00,
2013-11-24 22:43:00,39.6,34.8,30.06,North,0,0.0,0.0,83,0.00,,,0.06,WUHU216HW,2013-11-25 05:43:00,
2013-11-24 22:44:00,39.6,34.8,30.06,North,0,0.0,0.0,83,0.00,,,0.06,WUHU216HW,2013-11-25 05:44:00,
2013-11-24 22:46:00,39.6,35.2,30.06,North,0,0.0,0.0,84,0.00,,,0.06,WUHU216HW,2013-11-25 05:46:00,
2013-11-24 22:47:00,39.6,35.2,30.06,North,0,0.0,0.0,84,0.00,,,0.06,WUHU216HW,2013-11-25 05:47:00,
2013-11-24 22:49:00,39.6,35.2,30.06,North,0,0.0,0.0,84,0.00,,,0.06,WUHU216HW,2013-11-25 05:49:00,
2013-11-24 22:50:00,39.6,35.2,30.06,North,0,0.0,0.0,84,0.00,,,0.06,WUHU216HW,2013-11-25 05:50:00,
2013-11-24 22:51:00,39.6,35.2,30.06,North,0,0.0,0.0,84,0.00,,,0.06,WUHU216HW,2013-11-25 05:51:00,
2013-11-24 22:52:00,39.4,35.0,30.06,North,0,0.0,0.0,84,0.00,,,0.06,WUHU216HW,2013-11-25 05:52:00,
2013-11-24 22:54:00,39.4,35.0,30.06,North,0,0.0,0.0,84,0.00,,,0.06,WUHU216HW,2013-11-25 05:54:00,
2013-11-24 22:55:00,39.4,35.0,30.05,North,0,0.0,0.0,84,0.00,,,0.06,WUHU216HW,2013-11-25 05:55:00,
2013-11-24 22:57:00,39.4,35.0,30.05,North,0,0.0,0.0,84,0.00,,,0.06,WUHU216HW,2013-11-25 05:57:00,
2013-11-24 22:59:00,39.4,35.0,30.05,North,0,0.0,0.0,84,0.00,,,0.06,WUHU216HW,2013-11-25 05:59:00,
2013-11-24 23:00:00,39.2,34.8,30.05,North,0,0.0,0.0,84,0.00,,,0.06,WUHU216HW,2013-11-25 06:00:00,
2013-11-24 23:01:00,39.2,34.8,30.05,North,0,0.0,0.0,84,0.00,,,0.06,WUHU216HW,2013-11-25 06:01:00,
2013-11-24 23:03:00,39.2,34.8,30.05,North,0,0.0,0.0,84,0.00,,,0.06,WUHU216HW,2013-11-25 06:03:00,
2013-11-24 23:05:00,39.2,34.8,30.05,North,0,0.0,0.0,84,0.00,,,0.06,WUHU216HW,2013-11-25 06:05:00,
2013-11-24 23:06:00,39.1,34.7,30.05,North,0,0.0,0.0,84,0.00,,,0.06,WUHU216HW,2013-11-25 06:06:00,
2013-11-24 23:07:00,39.1,34.7,30.05,North,0,0.0,0.0,84,0.00,,,0.06,WUHU216HW,2013-11-25 06:07:00,
2013-11-24 23:08:00,39.1,34.7,30.05,North,0,0.0,0.0,84,0.00,,,0.06,WUHU216HW,2013-11-25 06:08:00,
2013-11-24 23:09:00,39.1,34.7,30.05,North,0,0.0,0.0,84,0.00,,,0.06,WUHU216HW,2013-11-25 06:09:00,
2013-11-24 23:11:00,39.1,34.7,30.05,North,0,0.0,0.0,84,0.00,,,0.06,WUHU216HW,2013-11-25 06:11:00,
2013-11-24 23:13:00,39.1,34.7,30.05,North,0,0.0,0.0,84,0.00,,,0.06,WUHU216HW,2013-11-25 06:13:00,
2013-11-24 23:14:00,38.9,34.5,30.05,North,0,0.0,0.0,84,0.00,,,0.06,WUHU216HW,2013-11-25 06:14:00,
2013-11-24 23:15:00,38.9,34.5,30.05,North,0,0.0,0.0,84,0.00,,,0.06,WUHU216HW,2013-11-25 06:15:00,
2013-11-24 23:16:00,38.9,34.5,30.05,North,0,0.0,0.0,84,0.00,,,0.06,WUHU216HW,2013-11-25 06:16:00,
2013-11-24 23:17:00,38.9,34.7,30.05,North,0,0.0,0.0,85,0.00,,,0.06,WUHU216HW,2013-11-25 06:17:00,
2013-11-24 23:18:00,38.7,34.6,30.05,North,0,0.0,0.0,85,0.00,,,0.06,WUHU216HW,2013-11-25 06:18:00,
2013-11-24 23:19:00,38.7,34.6,30.05,North,0,0.0,0.0,85,0.00,,,0.06,WUHU216HW,2013-11-25 06:19:00,
2013-11-24 23:20:00,38.7,34.6,30.05,North,0,0.0,0.0,85,0.00,,,0.06,WUHU216HW,2013-11-25 06:20:00,
2013-11-24 23:21:00,38.7,34.6,30.05,North,0,0.0,0.0,85,0.00,,,0.06,WUHU216HW,2013-11-25 06:21:00,
2013-11-24 23:22:00,38.7,34.6,30.05,North,0,0.0,0.0,85,0.00,,,0.06,WUHU216HW,2013-11-25 06:22:00,
2013-11-24 23:23:00,38.5,34.4,30.05,North,0,0.0,0.0,85,0.00,,,0.06,WUHU216HW,2013-11-25 06:23:00,
2013-11-24 23:24:00,38.5,34.4,30.05,North,0,0.0,0.0,85,0.00,,,0.06,WUHU216HW,2013-11-25 06:24:00,
2013-11-24 23:25:00,38.5,34.4,30.05,North,0,0.0,0.0,85,0.00,,,0.06,WUHU216HW,2013-11-25 06:25:00,
2013-11-24 23:28:00,38.5,34.4,30.05,North,0,0.0,0.0,85,0.00,,,0.06,WUHU216HW,2013-11-25 06:28:00,
2013-11-24 23:29:00,38.5,34.4,30.05,North,0,0.0,0.0,85,0.00,,,0.06,WUHU216HW,2013-11-25 06:29:00,
2013-11-24 23:30:00,38.5,34.4,30.05,North,0,0.0,0.0,85,0.00,,,0.06,WUHU216HW,2013-11-25 06:30:00,
2013-11-24 23:31:00,38.5,34.4,30.05,North,0,0.0,0.0,85,0.00,,,0.06,WUHU216HW,2013-11-25 06:31:00,
2013-11-24 23:33:00,38.5,34.4,30.05,North,0,0.0,0.0,85,0.00,,,0.06,WUHU216HW,2013-11-25 06:33:00,
2013-11-24 23:34:00,38.5,34.4,30.05,North,0,0.0,0.0,85,0.00,,,0.06,WUHU216HW,2013-11-25 06:34:00,
2013-11-24 23:35:00,38.5,34.4,30.05,North,0,0.0,0.0,85,0.00,,,0.06,WUHU216HW,2013-11-25 06:35:00,
2013-11-24 23:36:00,38.5,34.4,30.05,North,0,0.0,0.0,85,0.00,,,0.06,WUHU216HW,2013-11-25 06:36:00,
2013-11-24 23:37:00,38.5,34.4,30.05,North,0,0.0,0.0,85,0.00,,,0.06,WUHU216HW,2013-11-25 06:37:00,
2013-11-24 23:39:00,38.5,34.4,30.05,North,0,0.0,0.0,85,0.00,,,0.06,WUHU216HW,2013-11-25 06:39:00,
2013-11-24 23:40:00,38.5,34.4,30.05,North,0,0.0,0.0,85,0.00,,,0.06,WUHU216HW,2013-11-25 06:40:00,
2013-11-24 23:41:00,38.5,34.4,30.05,North,0,0.0,0.0,85,0.00,,,0.06,WUHU216HW,2013-11-25 06:41:00,
2013-11-24 23:43:00,38.5,34.4,30.05,North,0,0.0,0.0,85,0.00,,,0.06,WUHU216HW,2013-11-25 06:43:00,
2013-11-24 23:44:00,38.5,34.4,30.05,North,0,0.0,0.0,85,0.00,,,0.06,WUHU216HW,2013-11-25 06:44:00,
2013-11-24 23:46:00,38.5,34.7,30.05,North,0,0.0,0.0,86,0.00,,,0.06,WUHU216HW,2013-11-25 06:46:00,
2013-11-24 23:47:00,38.3,34.2,30.05,North,0,0.0,0.0,85,0.00,,,0.06,WUHU216HW,2013-11-25 06:47:00,
2013-11-24 23:48:00,38.3,34.2,30.05,North,0,0.0,0.0,85,0.00,,,0.06,WUHU216HW,2013-11-25 06:48:00,
2013-11-24 23:49:00,38.3,34.2,30.05,North,0,0.0,0.0,85,0.00,,,0.06,WUHU216HW,2013-11-25 06:49:00,
2013-11-24 23:52:00,38.2,34.3,30.05,North,0,0.0,0.0,86,0.00,,,0.06,WUHU216HW,2013-11-25 06:52:00,
2013-11-24 23:53:00,38.2,34.3,30.05,North,0,0.0,0.0,86,0.00,,,0.06,WUHU216HW,2013-11-25 06:53:00,
2013-11-24 23:54:00,38.2,34.0,30.05,North,0,0.0,0.0,85,0.00,,,0.06,WUHU216HW,2013-11-25 06:54:00,
2013-11-24 23:55:00,38.0,34.1,30.05,North,0,0.0,0.0,86,0.00,,,0.06,WUHU216HW,2013-11-25 06:55:00,
2013-11-24 23:57:00,38.0,34.1,30.05,North,0,0.0,0.0,86,0.00,,,0.06,WUHU216HW,2013-11-25 06:57:00,
2013-11-24 23:58:00,38.0,34.1,30.05,North,0,0.0,0.0,86,0.00,,,0.06,WUHU216HW,2013-11-25 06:58:00,
2013-11-24 23:59:00,38.0,34.1,30.05,North,0,0.0,0.0,86,0.00,,,0.06,WUHU216HW,2013-11-25 06:59:00,